GFSMA_con_mucape_036.txt.gz
CAPE
5 0 0 0 0 3 2 6 8 3 5 2 1 0 0 0 0 0 0 0 0 0 0 0 0 0 0 0 0 0 0 0 1 0 0 0 0 0 0 8 44 92 106
15 18 16 9 45 7 5 5 4 2 0 0 0 0 0 0 0 0 0 0 0 0 0 0 0 0 0 0 0 0 0 0 0 0 0 0 0 0 0 0 0 0 15
73 27 4 26 1 0 2 3 0 0 0 0 0 0 0 0 0 0 0 0 0 0 0 0 0 0 0 0 0 0 0 0 0 0 0 0 0 0 0 0 0 0 0
60 53 7 8 3 0 0 0 0 0 0 0 0 0 0 0 0 0 0 0 0 0 0 0 0 0 0 0 0 0 0 0 0 0 0 0 0 0 0 0 0 0 0
41 8 0 0 0 0 0 0 0 0 0 0 0 0 0 0 0 0 0 0 0 0 0 0 0 0 0 0 0 0 0 0 0 0 0 0 0 0 0 0 3 5 8
47 28 0 0 0 0 0 0 0 0 0 0 0 0 0 0 0 0 0 0 0 0 0 0 0 0 0 0 0 0 0 0 0 0 0 0 0 0 7 7 5 11 9
0 0 0 0 0 0 0 0 0 0 0 0 0 0 0 0 0 0 0 0 0 0 0 0 0 0 0 0 0 0 0 0 0 0 0 0 0 3 6 11 13 11 13
8 0 0 0 0 0 0 0 0 0 0 0 0 0 0 0 0 0 0 0 0 0 0 0 0 0 0 0 0 0 0 0 0 0 0 0 0 9 16 18 19 20 22
0 0 0 0 0 0 0 0 0 0 0 0 0 0 0 0 0 0 0 0 0 0 0 0 0 0 0 0 0 0 0 0 0 0 0 0 0 25 34 37 41 44 44
0 0 0 0 0 0 0 0 0 0 0 0 0 0 0 0 0 0 0 0 0 0 0 0 0 0 0 0 0 0 0 0 0 0 0 0 31 42 55 62 61 63 62
0 0 0 0 0 0 0 0 0 0 0 0 0 0 0 0 0 0 0 0 0 0 0 0 0 0 0 0 0 0 0 0 0 0 0 36 45 54 66 74 88 81 66
0 0 0 0 0 0 0 0 0 0 0 0 0 0 0 0 0 0 0 0 0 0 0 0 0 0 0 0 0 0 0 0 0 0 0 0 23 76 85 92 88 76 71
0 0 0 0 0 0 0 0 0 0 0 0 0 0 0 0 0 0 0 0 0 0 0 0 0 0 0 0 0 0 0 0 0 0 0 37 63 70 82 91 100 105 92
0 0 0 0 0 0 0 0 0 0 0 0 0 0 0 0 0 0 0 0 0 0 0 0 0 0 0 0 0 0 0 0 0 0 0 49 51 60 71 83 87 86 89
0 0 0 0 0 0 0 0 0 0 0 0 0 0 0 0 0 0 0 0 0 0 0 0 0 0 0 0 0 0 0 0 0 56 55 53 52 65 82 87 83 93 102
0 0 0 0 0 0 0 0 0 0 0 0 0 0 0 0 0 0 0 0 0 0 0 0 0 0 0 0 0 0 0 0 0 23 58 68 77 92 94 96 84 92 83
0 0 0 0 0 0 0 0 0 0 0 0 0 0 0 0 0 0 0 0 0 0 0 0 0 0 0 0 0 0 0 0 0 0 83 96 102 98 91 92 102 107 110
0 0 0 0 0 0 0 0 0 0 0 0 0 0 0 0 0 0 0 0 0 0 0 0 0 0 0 0 0 0 0 0 0 0 2 0 1 66 69 68 82 88 96
0 0 0 0 0 0 0 0 0 0 0 0 0 0 0 0 0 0 0 0 0 0 0 0 0 0 0 0 0 0 0 0 0 0 0 0 0 0 0 0 0 88 72
0 0 0 0 0 0 0 0 0 0 0 0 0 0 0 0 0 0 0 0 0 0 0 0 0 0 0 0 0 0 0 0 0 0 0 0 0 0 0 0 0 0 0
0 0 0 0 0 0 0 0 0 0 0 0 0 0 0 0 0 0 0 0 0 0 0 0 0 0 0 0 0 0 0 0 0 0 0 0 0 0 0 0 0 0 0
0 0 0 0 0 0 0 0 0 0 0 0 0 0 0 0 0 0 0 0 0 0 0 0 0 0 0 0 0 0 0 0 0 0 0 0 0 0 0 0 0 0 0
0 0 0 0 0 0 0 0 0 0 0 0 0 0 0 0 0 0 0 0 0 0 0 0 0 0 0 0 0 0 0 0 0 0 0 0 0 0 0 0 0 0 0
0 0 0 0 0 0 0 0 0 0 0 0 0 0 0 0 0 0 0 0 0 0 0 0 0 0 0 0 0 0 0 0 0 0 0 0 0 0 0 0 0 0 0
0 0 0 0 0 0 0 0 0 0 0 0 0 0 0 0 0 0 0 0 0 0 0 0 0 0 0 0 0 0 0 0 0 0 0 0 0 0 0 0 0 0 0
0 0 0 0 0 0 0 0 0 0 0 0 0 0 0 0 0 0 0 0 0 0 0 0 0 0 0 0 0 0 0 0 0 0 0 0 0 0 0 0 0 0 0

GFSMA_con_mucape_042.txt.gz
CAPE
53 12 0 4 7 4 1 0 0 1 1 0 0 0 0 0 0 0 0 0 0 0 0 0 0 0 0 0 0 0 0 0 0 0 0 0 0 0 0 0 0 0 0
36 8 0 2 7 3 2 2 0 0 0 0 0 0 0 0 0 0 0 0 0 0 0 0 0 0 0 0 0 0 0 0 0 0 0 0 0 0 0 0 0 0 0
36 2 4 8 1 1 0 0 0 0 0 0 0 0 0 0 0 0 0 0 0 0 0 0 0 0 0 0 0 0 0 0 0 0 0 0 0 0 0 0 0 0 0
59 7 15 1 1 0 0 0 0 0 0 0 0 0 0 0 0 0 0 0 0 0 0 0 0 0 0 0 0 0 0 0 0 0 0 0 0 0 0 0 0 0 0
61 23 19 3 3 0 0 0 0 0 0 0 0 0 0 0 0 0 0 0 0 0 0 0 0 0 0 0 0 0 0 0 0 0 0 0 0 0 0 1 1 2 6
85 95 33 0 0 0 0 0 0 0 0 0 0 0 0 0 0 0 0 0 0 0 0 0 0 0 0 0 0 0 0 0 0 0 0 0 0 0 0 9 12 14 14
142 116 41 2 0 0 0 0 0 0 0 0 0 0 0 0 0 0 0 0 0 0 0 0 0 0 0 0 0 0 0 0 0 0 0 0 0 0 0 14 15 18 21
220 163 0 1 0 0 0 0 0 0 0 0 0 0 0 0 0 0 0 0 0 0 0 0 0 0 0 0 0 0 0 0 0 0 0 0 0 0 0 1 24 29 28
200 34 0 0 0 0 0 0 0 0 0 0 0 0 0 0 0 0 0 0 0 0 0 0 0 0 0 0 0 0 0 0 0 0 0 0 0 0 0 33 37 41 42
50 7 0 0 0 0 0 0 0 0 0 0 0 0 0 0 0 0 0 0 0 0 0 0 0 0 0 0 0 0 0 0 0 0 0 0 0 0 49 58 65 74 71
64 19 0 0 0 0 0 0 0 0 0 0 0 0 0 0 0 0 0 0 0 0 0 0 0 0 0 0 0 0 0 0 0 0 0 0 0 0 68 75 75 79 89
74 4 0 0 0 0 0 0 0 0 0 0 0 0 0 0 0 0 0 0 0 0 0 0 0 0 0 0 0 0 0 0 0 0 0 0 0 77 94 104 111 95 108
1 36 0 0 0 0 0 0 0 0 0 0 0 0 0 0 0 0 0 0 0 0 0 0 0 0 0 0 0 0 0 0 0 0 0 0 60 63 74 92 110 108 129
46 9 0 0 0 0 0 0 0 0 0 0 0 0 0 0 0 0 0 0 0 0 0 0 0 0 0 0 0 0 0 0 0 0 0 0 0 0 7 81 85 106 99
7 0 0 0 0 0 0 0 0 0 0 0 0 0 0 0 0 0 0 0 0 0 0 0 0 0 0 0 0 0 0 0 0 0 0 0 0 0 0 8 75 77 82
0 0 0 0 0 0 0 0 0 0 0 0 0 0 0 0 0 0 0 0 0 0 0 0 0 0 0 0 0 0 0 0 0 0 0 0 0 0 0 0 0 0 0
0 0 0 0 0 0 0 0 0 0 0 0 0 0 0 0 0 0 0 0 0 0 0 0 0 0 0 0 0 0 0 0 0 0 0 0 0 0 0 0 0 0 0
0 0 0 0 0 0 0 0 0 0 0 0 0 0 0 0 0 0 0 0 0 0 0 0 0 0 0 0 0 0 0 0 0 0 0 0 0 0 0 0 0 0 0
0 0 0 0 0 0 0 0 0 0 0 0 0 0 0 0 0 0 0 0 0 0 0 0 0 0 0 0 0 0 0 0 0 0 0 0 0 0 0 0 0 0 0
0 0 0 0 0 0 0 0 0 0 0 0 0 0 0 0 0 0 0 0 0 0 0 0 0 0 0 0 0 0 0 0 0 0 0 0 0 0 0 0 0 0 0
0 0 0 0 0 0 0 0 0 0 0 0 0 0 0 0 0 0 0 0 0 0 0 0 0 0 0 0 0 0 0 0 0 0 0 0 0 0 0 0 0 0 0
0 0 0 0 0 0 0 0 0 0 0 0 0 0 0 0 0 0 0 0 0 0 0 0 0 0 0 0 0 0 0 0 0 0 0 0 0 0 0 0 0 0 0
0 0 0 0 0 0 0 0 0 0 0 0 0 0 0 0 0 0 0 0 0 0 0 0 0 0 0 0 0 0 0 0 0 0 0 0 0 0 0 0 0 0 0
0 0 0 0 0 0 0 0 0 0 0 0 0 0 0 0 0 0 0 0 0 0 0 0 0 0 0 0 0 0 0 0 0 0 0 0 0 0 0 0 0 0 0
0 0 0 0 0 0 0 0 0 0 0 0 0 0 0 0 0 0 0 0 0 0 0 0 0 0 0 0 0 0 0 0 0 0 0 0 0 0 0 0 0 0 0
0 0 0 0 0 0 0 0 0 0 0 0 0 0 0 0 0 0 0 0 0 0 0 0 0 0 0 0 0 0 0 0 0 0 0 0 0 0 0 0 0 0 0

GFSMA_con_mucape_045.txt.gz
CAPE
28 22 6 3 13 9 1 0 0 0 0 0 0 0 0 0 0 0 0 0 0 0 0 0 0 0 0 0 0 0 0 0 0 0 0 0 0 0 0 0 0 0 0
120 60 57 6 0 1 2 0 0 0 0 0 0 0 0 0 0 0 0 0 0 0 0 0 0 0 0 0 0 0 0 0 0 0 0 0 0 0 0 0 0 0 0
151 70 0 0 0 0 0 0 0 0 0 0 0 0 0 0 0 0 0 0 0 0 0 0 0 0 0 0 0 0 0 0 0 0 0 0 0 0 0 0 0 0 0
163 2 0 0 0 0 0 0 0 0 0 0 0 0 0 0 0 0 0 0 0 0 0 0 0 0 0 0 0 0 0 0 0 0 0 0 0 0 0 0 0 0 0
50 15 10 6 0 0 0 0 0 0 0 0 0 0 0 0 0 0 0 0 0 0 0 0 0 0 0 0 0 0 0 0 0 0 0 0 0 0 0 2 3 5 5
58 36 33 24 0 0 0 0 0 0 0 0 0 0 0 0 0 0 0 0 0 0 0 0 0 0 0 0 0 0 0 0 0 0 0 0 0 0 0 3 9 13 14
130 120 105 44 31 0 0 0 0 0 0 0 0 0 0 0 0 0 0 0 0 0 0 0 0 0 0 0 0 0 0 0 0 0 0 0 0 0 0 0 18 20 28
280 236 166 28 7 0 0 0 0 0 0 0 0 0 0 0 0 0 0 0 0 0 0 0 0 0 0 0 0 0 0 0 0 0 0 0 0 0 0 0 23 28 37
302 196 190 36 15 0 0 0 0 0 0 0 0 0 0 0 0 0 0 0 0 0 0 0 0 0 0 0 0 0 0 0 0 0 0 0 0 0 0 0 39 47 51
197 164 129 8 0 0 0 0 0 0 0 0 0 0 0 0 0 0 0 0 0 0 0 0 0 0 0 0 0 0 0 0 0 0 0 0 0 0 0 0 30 61 64
226 217 35 5 10 0 0 0 0 0 0 0 0 0 0 0 0 0 0 0 0 0 0 0 0 0 0 0 0 0 0 0 0 0 0 0 0 0 0 15 72 76 81
164 132 36 1 0 0 0 0 0 0 0 0 0 0 0 0 0 0 0 0 0 0 0 0 0 0 0 0 0 0 0 0 0 0 0 0 0 43 84 94 95 100 119
183 159 19 18 0 0 0 0 0 0 0 0 0 0 0 0 0 0 0 0 0 0 0 0 0 0 0 0 0 0 0 0 0 0 0 0 0 0 24 84 96 90 112
290 30 0 0 0 0 0 0 0 0 0 0 0 0 0 0 0 0 0 0 0 0 0 0 0 0 0 0 0 0 0 0 0 0 0 0 0 0 0 0 76 82 81
281 12 20 0 0 0 0 0 0 0 0 0 0 0 0 0 0 0 0 0 0 0 0 0 0 0 0 0 0 0 0 0 0 0 0 0 0 0 0 0 0 0 0
87 40 1 0 0 0 0 0 0 0 0 0 0 0 0 0 0 0 0 0 0 0 0 0 0 0 0 0 0 0 0 0 0 0 0 0 0 0 0 0 0 0 0
8 11 4 0 0 0 0 0 0 0 0 0 0 0 0 0 0 0 0 0 0 0 0 0 0 0 0 0 0 0 0 0 0 0 0 0 0 0 0 0 0 0 0
1 0 0 0 0 0 0 0 0 0 0 0 0 0 0 0 0 0 0 0 0 0 0 0 0 0 0 0 0 0 0 0 0 0 0 0 0 0 0 0 0 0 0
0 0 0 0 0 0 0 0 0 0 0 0 0 0 0 0 0 0 0 0 0 0 0 0 0 0 0 0 0 0 0 0 0 0 0 0 0 0 0 0 0 0 0
0 0 0 0 0 0 0 0 0 0 0 0 0 0 0 0 0 0 0 0 0 0 0 0 0 0 0 0 0 0 0 0 0 0 0 0 0 0 0 0 0 0 0
0 0 0 0 0 0 0 0 0 0 0 0 0 0 0 0 0 0 0 0 0 0 0 0 0 0 0 0 0 0 0 0 0 0 0 0 0 0 0 0 0 0 0
0 0 0 0 0 0 0 0 0 0 0 0 0 0 0 0 0 0 0 0 0 0 0 0 0 0 0 0 0 0 0 0 0 0 0 0 0 0 0 0 0 0 0
0 0 0 0 0 0 0 0 0 0 0 0 0 0 0 0 0 0 0 0 0 0 0 0 0 0 0 0 0 0 0 0 0 0 0 0 0 0 0 0 0 0 0
0 0 0 0 0 0 0 0 0 0 0 0 0 0 0 0 0 0 0 0 0 0 0 0 0 0 0 0 0 0 0 0 0 0 0 0 0 0 0 0 0 0 0
0 0 0 0 0 0 0 0 0 0 0 0 0 0 0 0 0 0 0 0 0 0 0 0 0 0 0 0 0 0 0 0 0 0 0 0 0 0 0 0 0 0 0
0 0 0 0 0 0 0 0 0 0 0 0 0 0 0 0 0 0 0 0 0 0 0 0 0 0 0 0 0 0 0 0 0 0 0 0 0 0 0 0 0 0 0

GFSMA_con_mucape_048.txt.gz
CAPE
0 0 0 0 1 2 1 2 0 0 0 0 0 0 0 0 0 0 0 0 0 0 0 0 0 0 0 0 0 0 0 0 0 0 0 0 0 0 0 0 0 0 0
0 5 2 5 2 0 0 0 0 0 0 0 0 0 0 0 0 0 0 0 0 0 0 0 0 0 0 0 0 0 0 0 0 0 0 0 0 0 0 0 0 0 0
78 54 49 31 1 0 0 0 0 0 0 0 0 0 0 0 0 0 0 0 0 0 0 0 0 0 0 0 0 0 0 0 0 0 0 0 0 0 0 0 0 0 0
175 66 57 0 0 0 0 0 0 0 0 0 0 0 0 0 0 0 0 0 0 0 0 0 0 0 0 0 0 0 0 0 0 0 0 0 0 0 0 0 0 2 2
207 68 0 0 0 0 0 0 0 0 0 0 0 0 0 0 0 0 0 0 0 0 0 0 0 0 0 0 0 0 0 0 0 0 0 0 0 0 0 0 1 6 6
328 129 0 0 0 0 0 0 0 0 0 0 0 0 0 0 0 0 0 0 0 0 0 0 0 0 0 0 0 0 0 0 0 0 0 0 0 0 0 0 10 13 13
399 126 51 0 19 0 0 0 0 0 0 0 0 0 0 0 0 0 0 0 0 0 0 0 0 0 0 0 0 0 0 0 0 0 0 0 0 0 0 0 0 20 22
377 224 139 91 106 1 0 0 0 0 0 0 0 0 0 0 0 0 0 0 0 0 0 0 0 0 0 0 0 0 0 0 0 0 0 0 0 0 0 0 0 0 27
455 319 242 204 152 1 0 0 0 0 0 0 0 0 0 0 0 0 0 0 0 0 0 0 0 0 0 0 0 0 0 0 0 0 0 0 0 0 0 0 0 0 42
476 388 252 248 229 57 0 0 0 0 0 0 0 0 0 0 0 0 0 0 0 0 0 0 0 0 0 0 0 0 0 0 0 0 0 0 0 0 0 0 0 0 0
390 439 242 222 128 29 28 0 0 0 0 0 0 0 0 0 0 0 0 0 0 0 0 0 0 0 0 0 0 0 0 0 0 0 0 0 0 0 0 1 79 70 78
358 364 238 184 114 43 1 0 0 0 0 0 0 0 0 0 0 0 0 0 0 0 0 0 0 0 0 0 0 0 0 0 0 0 0 0 0 0 0 67 75 88 87
291 346 232 187 61 0 0 0 0 0 0 0 0 0 0 0 0 0 0 0 0 0 0 0 0 0 0 0 0 0 0 0 0 0 0 0 0 0 0 4 78 86 91
395 246 240 167 112 10 0 0 0 0 0 0 0 0 0 0 0 0 0 0 0 0 0 0 0 0 0 0 0 0 0 0 0 0 0 0 0 0 0 8 65 74 71
367 296 244 182 25 5 0 0 0 0 0 0 0 0 0 0 0 0 0 0 0 0 0 0 0 0 0 0 0 0 0 0 0 0 0 0 0 0 0 0 0 0 0
393 324 218 27 33 6 0 0 0 0 0 0 0 0 0 0 0 0 0 0 0 0 0 0 0 0 0 0 0 0 0 0 0 0 0 0 0 0 0 0 0 0 0
272 162 82 16 14 0 0 0 0 0 0 0 0 0 0 0 0 0 0 0 0 0 0 0 0 0 0 0 0 0 0 0 0 0 0 0 0 0 0 0 0 0 0
94 23 9 1 1 0 0 0 0 0 0 0 0 0 0 0 0 0 0 0 0 0 0 0 0 0 0 0 0 0 0 0 0 0 0 0 0 0 0 0 0 0 0
17 105 12 0 0 0 0 0 0 0 0 0 0 0 0 0 0 0 0 0 0 0 0 0 0 0 0 0 0 0 0 0 0 0 0 0 0 0 0 0 0 0 0
45 12 8 0 0 0 0 0 0 0 0 0 0 0 0 0 0 0 0 0 0 0 0 0 0 0 0 0 0 0 0 0 0 0 0 0 0 0 0 0 0 0 0
5 0 0 0 0 0 0 0 0 0 0 0 0 0 0 0 0 0 0 0 0 0 0 0 0 0 0 0 0 0 0 0 0 0 0 0 0 0 0 0 0 0 0
0 0 0 0 0 0 0 0 0 0 0 0 0 0 0 0 0 0 0 0 0 0 0 0 0 0 0 0 0 0 0 0 0 0 0 0 0 0 0 0 0 0 0
0 0 0 0 0 0 0 0 0 0 0 0 0 0 0 0 0 0 0 0 0 0 0 0 0 0 0 0 0 0 0 0 0 0 0 0 0 0 0 0 0 0 0
0 0 0 0 0 0 0 0 0 0 0 0 0 0 0 0 0 0 0 0 0 0 0 0 0 0 0 0 0 0 0 0 0 0 0 0 0 0 0 0 0 0 0
0 0 0 0 0 0 0 0 0 0 0 0 0 0 0 0 0 0 0 0 0 0 0 0 0 0 0 0 0 0 0 0 0 0 0 0 0 0 0 0 0 0 0
0 0 0 0 0 0 0 0 0 0 0 0 0 0 0 0 0 0 0 0 0 0 0 0 0 0 0 0 0 0 0 0 0 0 0 0 0 0 0 0 0 0 0

GFSMA_con_mucape_051.txt.gz
CAPE
68 0 0 0 0 0 0 0 0 0 0 0 0 0 0 0 0 0 0 0 0 0 0 0 0 0 0 0 0 0 0 0 0 0 0 0 0 0 0 0 0 0 0
0 0 0 0 0 0 0 1 0 0 0 0 0 0 0 0 0 0 0 0 0 0 0 0 0 0 0 0 0 0 0 0 0 0 0 0 0 0 0 0 1 0 1
0 0 0 0 0 0 0 0 0 0 0 0 0 0 0 0 0 0 0 0 0 0 0 0 0 0 0 0 0 0 0 0 0 0 0 0 0 0 0 0 3 3 4
52 54 63 4 7 0 0 0 0 0 0 0 0 0 0 0 0 0 0 0 0 0 0 0 0 0 0 0 0 0 0 0 0 0 0 0 0 0 0 0 0 5 6
134 175 142 84 34 0 0 0 0 0 0 0 0 0 0 0 0 0 0 0 0 0 0 0 0 0 0 0 0 0 0 0 0 0 0 0 0 0 0 0 2 10 11
275 270 213 92 0 0 0 0 0 0 0 0 0 0 0 0 0 0 0 0 0 0 0 0 0 0 0 0 0 0 0 0 0 0 0 0 0 0 0 0 0 13 13
351 344 198 103 40 9 2 0 0 0 0 0 0 0 0 0 0 0 0 0 0 0 0 0 0 0 0 0 0 0 0 0 0 0 0 0 0 0 0 0 0 0 0
424 393 286 184 152 60 63 0 0 0 0 0 0 0 0 0 0 0 0 0 0 0 0 0 0 0 0 0 0 0 0 0 0 0 0 0 0 0 0 0 0 0 0
628 473 369 222 202 139 126 40 0 0 0 0 0 0 0 0 0 0 0 0 0 0 0 0 0 0 0 0 0 0 0 0 0 0 0 0 0 0 0 0 0 0 0
780 531 443 268 250 236 206 131 23 0 0 0 0 0 0 0 0 0 0 0 0 0 0 0 0 0 0 0 0 0 0 0 0 0 0 0 0 0 0 0 0 0 0
802 640 494 274 339 291 174 126 66 37 0 0 0 0 0 0 0 0 0 0 0 0 0 0 0 0 0 0 0 0 0 0 0 0 0 0 0 0 0 0 0 0 0
394 447 362 273 297 213 130 109 79 2 0 0 0 0 0 0 0 0 0 0 0 0 0 0 0 0 0 0 0 0 0 0 0 0 0 0 0 0 0 0 0 45 23
432 354 238 349 283 176 175 146 13 9 1 0 0 0 0 0 0 0 0 0 0 0 0 0 0 0 0 0 0 0 0 0 0 0 0 0 0 0 0 0 74 71 83
317 264 265 432 363 148 137 41 17 7 0 0 0 0 0 0 0 0 0 0 0 0 0 0 0 0 0 0 0 0 0 0 0 0 0 0 0 0 0 0 64 66 73
226 120 70 413 252 158 123 64 14 19 0 0 0 0 0 0 0 0 0 0 0 0 0 0 0 0 0 0 0 0 0 0 0 0 0 0 0 0 0 7 52 64 63
43 94 188 164 211 131 41 13 19 12 0 0 0 0 0 0 0 0 0 0 0 0 0 0 0 0 0 0 0 0 0 0 0 0 0 0 0 0 0 0 0 18 39
79 214 249 196 60 52 14 15 9 0 0 0 0 0 0 0 0 0 0 0 0 0 0 0 0 0 0 0 0 0 0 0 0 0 0 0 0 0 0 0 0 0 0
248 294 244 49 28 28 3 2 0 0 0 0 0 0 0 0 0 0 0 0 0 0 0 0 0 0 0 0 0 0 0 0 0 0 0 0 0 0 0 0 0 0 0
219 272 134 49 19 39 10 0 0 0 0 0 0 0 0 0 0 0 0 0 0 0 0 0 0 0 0 0 0 0 0 0 0 0 0 0 0 0 0 0 0 0 0
166 284 8 19 10 7 0 0 0 0 0 0 0 0 0 0 0 0 0 0 0 0 0 0 0 0 0 0 0 0 0 0 0 0 0 0 0 0 0 0 0 0 0
5 2 4 6 0 0 0 0 0 0 0 0 0 0 0 0 0 0 0 0 0 0 0 0 0 0 0 0 0 0 0 0 0 0 0 0 0 0 0 0 0 0 0
0 0 0 0 0 0 0 0 0 0 0 0 0 0 0 0 0 0 0 0 0 0 0 0 0 0 0 0 0 0 0 0 0 0 0 0 0 0 0 0 0 0 0
1 0 0 0 0 3 0 0 0 0 0 0 0 0 0 0 0 0 0 0 0 0 0 0 0 0 0 0 0 0 0 0 0 0 0 0 0 0 0 0 0 0 0
3 0 0 0 0 0 0 0 0 0 0 0 0 0 0 0 0 0 0 0 0 0 0 0 0 0 0 0 0 0 0 0 0 0 0 0 0 0 0 0 0 0 0
0 0 0 0 0 0 0 0 0 0 0 0 0 0 0 0 0 0 0 0 0 0 0 0 0 0 0 0 0 0 0 0 0 0 0 0 0 0 0 0 0 0 0
0 0 0 0 0 0 0 0 0 0 0 0 0 0 0 0 0 0 0 0 0 0 0 0 0 0 0 0 0 0 0 0 0 0 0 0 0 0 0 0 0 0 0

GFSMA_con_mucape_054.txt.gz
CAPE
64 131 66 4 0 0 0 0 0 0 0 0 0 0 0 0 0 0 0 0 0 0 0 0 0 0 0 0 0 0 0 0 0 0 0 0 0 0 0 0 1 1 0
41 152 64 0 0 0 0 0 0 0 0 0 0 0 0 0 0 0 0 0 0 0 0 0 0 0 0 0 0 0 0 0 0 0 0 0 0 0 0 0 4 4 4
93 178 13 0 0 0 0 0 0 0 0 0 0 0 0 0 0 0 0 0 0 0 0 0 0 0 0 0 0 0 0 0 0 0 0 0 0 0 0 0 0 0 6
16 12 0 7 3 3 0 0 0 0 0 0 0 0 0 0 0 0 0 0 0 0 0 0 0 0 0 0 0 0 0 0 0 0 0 0 0 0 0 0 0 0 9
121 9 11 34 22 12 11 0 0 0 0 0 0 0 0 0 0 0 0 0 0 0 0 0 0 0 0 0 0 0 0 0 0 0 0 0 0 0 0 0 0 0 11
212 50 66 72 69 41 38 0 0 0 0 0 0 0 0 0 0 0 0 0 0 0 0 0 0 0 0 0 0 0 0 0 0 0 0 0 0 0 0 0 0 0 0
272 89 122 153 157 99 9 4 2 0 0 0 0 0 0 0 0 0 0 0 0 0 0 0 0 0 0 0 0 0 0 0 0 0 0 0 0 0 0 0 0 0 0
405 244 192 266 286 118 54 27 22 8 2 0 0 0 0 0 0 0 0 0 0 0 0 0 0 0 0 0 0 0 0 0 0 0 0 0 0 0 0 0 0 0 0
525 386 307 359 380 172 109 97 68 39 45 8 0 0 0 0 0 0 0 0 0 0 0 0 0 0 0 0 0 0 0 0 0 0 0 0 0 0 0 0 0 0 0
620 498 407 395 357 213 126 166 156 101 96 24 0 0 0 0 0 0 0 0 0 0 0 0 0 0 0 0 0 0 0 0 0 0 0 0 0 0 0 0 0 0 0
652 547 456 490 411 314 194 207 241 147 88 62 14 0 0 0 0 0 0 0 0 0 0 0 0 0 0 0 0 0 0 0 0 0 0 0 0 0 0 0 0 0 0
629 411 398 404 403 337 242 219 316 134 87 70 2 5 2 0 0 0 0 0 0 0 0 0 0 0 0 0 0 0 0 0 0 0 0 0 0 0 0 0 0 0 0
489 361 291 320 227 211 291 234 217 126 90 78 15 14 0 0 0 0 0 0 0 0 0 0 0 0 0 0 0 0 0 0 0 0 0 0 0 0 0 0 0 0 0
320 146 172 168 219 111 207 294 198 122 42 30 8 8 0 0 0 0 0 0 0 0 0 0 0 0 0 0 0 0 0 0 0 0 0 0 0 0 0 0 0 0 55
167 148 109 125 196 85 94 121 176 72 22 9 17 10 0 0 0 0 0 0 0 0 0 0 0 0 0 0 0 0 0 0 0 0 0 0 0 0 0 0 0 43 102
117 93 107 122 162 39 84 182 63 30 31 10 1 4 0 0 0 0 0 0 0 0 0 0 0 0 0 0 0 0 0 0 0 0 0 0 0 0 0 0 15 66 49
114 123 160 297 38 90 77 116 123 0 17 15 12 0 0 0 0 0 0 0 0 0 0 0 0 0 0 0 0 0 0 0 0 0 0 0 0 0 0 0 0 0 0
225 249 159 28 103 171 49 18 0 7 4 0 0 0 0 0 0 0 0 0 0 0 0 0 0 0 0 0 0 0 0 0 0 0 0 0 0 0 0 0 0 0 0
73 35 29 83 120 40 14 13 1 5 0 0 0 0 0 0 0 0 0 0 0 0 0 0 0 0 0 0 0 0 0 0 0 0 0 0 0 0 0 0 0 0 0
30 48 33 52 33 27 6 10 5 2 0 0 0 0 0 0 0 0 0 0 0 0 0 0 0 0 0 0 0 0 0 0 0 0 0 0 0 0 0 0 0 0 0
99 43 46 48 25 14 6 5 0 0 0 0 0 0 0 0 0 0 0 0 0 0 0 0 0 0 0 0 0 0 0 0 0 0 0 0 0 0 0 0 0 0 0
32 34 39 0 2 0 2 0 0 0 0 0 0 0 0 0 0 0 0 0 0 0 0 0 0 0 0 0 0 0 0 0 0 0 0 0 0 0 0 0 0 0 0
5 9 0 0 0 0 0 0 0 0 0 0 0 0 0 0 0 0 0 0 0 0 0 0 0 0 0 0 0 0 0 0 0 0 0 0 0 0 0 0 0 0 0
1 0 0 0 0 0 0 0 0 0 0 0 0 0 0 0 0 0 0 0 0 0 0 0 0 0 0 0 0 0 0 0 0 0 0 0 0 0 0 0 0 0 0
0 0 0 0 0 0 0 0 0 0 0 0 0 0 0 0 0 0 0 0 0 0 0 0 0 0 0 0 0 0 0 0 0 0 0 0 0 0 0 0 0 0 0
0 0 0 0 0 0 0 0 0 0 0 0 0 0 0 0 0 0 0 0 0 0 0 0 0 0 0 0 0 0 0 0 0 0 0 0 0 0 0 0 0 0 0

GFSMA_con_mucape_057.txt.gz
CAPE
32 191 132 32 3 0 0 0 0 0 0 0 0 0 0 0 0 0 0 0 0 0 0 0 0 0 0 0 0 0 0 0 0 0 0 0 0 0 1 1 2 2 2
23 143 189 71 25 0 0 0 0 0 0 0 0 0 0 0 0 0 0 0 0 0 0 0 0 0 0 0 0 0 0 0 0 0 0 0 0 0 0 0 0 0 3
16 61 159 115 12 0 0 0 0 0 0 0 0 0 0 0 0 0 0 0 0 0 0 0 0 0 0 0 0 0 0 0 0 0 0 0 0 0 0 0 0 0 0
3 14 124 154 1 3 5 6 0 0 0 0 0 0 0 0 0 0 0 0 0 0 0 0 0 0 0 0 0 0 0 0 0 0 0 0 0 0 0 0 0 0 0
6 18 116 141 0 14 12 10 4 0 0 0 0 0 0 0 0 0 0 0 0 0 0 0 0 0 0 0 0 0 0 0 0 0 0 0 0 0 0 0 0 0 0
164 122 42 11 10 30 14 16 9 0 0 0 0 0 0 0 0 0 0 0 0 0 0 0 0 0 0 0 0 0 0 0 0 0 0 0 0 0 0 0 0 0 0
378 267 167 41 41 78 56 37 23 0 0 0 0 0 0 0 0 0 0 0 0 0 0 0 0 0 0 0 0 0 0 0 0 0 0 0 0 0 0 0 0 0 0
526 337 257 115 96 125 137 126 43 6 4 0 0 0 0 0 0 0 0 0 0 0 0 0 0 0 0 0 0 0 0 0 0 0 0 0 0 0 0 0 0 0 0
695 482 303 236 147 200 235 230 89 56 28 20 12 0 0 0 0 0 0 0 0 0 0 0 0 0 0 0 0 0 0 0 0 0 0 0 0 0 0 0 0 0 0
786 607 406 334 213 238 279 265 129 93 90 71 26 13 4 2 0 0 0 0 0 0 0 0 0 0 0 0 0 0 0 0 0 0 0 0 0 0 0 0 0 0 0
836 677 456 447 288 316 297 329 140 89 155 181 109 97 23 6 4 14 3 0 0 0 0 0 0 0 0 0 0 0 0 0 0 0 0 0 0 0 0 0 0 0 0
728 714 518 388 276 285 247 313 102 136 215 185 186 122 46 6 2 0 0 0 0 0 0 0 0 0 0 0 0 0 0 0 0 0 0 0 0 0 0 0 0 0 0
754 683 567 407 347 202 174 210 137 141 185 182 108 31 24 15 1 0 0 0 0 0 0 0 0 0 0 0 0 0 0 0 0 0 0 0 0 0 0 0 0 0 0
522 525 499 418 266 103 140 107 100 109 176 109 97 58 43 3 1 6 0 1 0 0 0 0 0 0 0 0 0 0 0 0 0 0 0 0 0 0 0 0 0 0 0
364 391 175 221 97 78 69 91 129 89 114 37 52 34 26 6 0 9 0 0 0 0 0 0 0 0 0 0 0 0 0 0 0 0 0 0 0 0 0 0 0 0 0
157 191 157 64 52 59 56 131 156 67 96 8 4 11 6 11 0 1 4 0 0 0 0 0 0 0 0 0 0 0 0 0 0 0 0 0 0 0 0 0 0 0 0
129 84 98 71 75 56 89 168 124 86 5 17 2 6 0 0 0 1 0 0 0 0 0 0 0 0 0 0 0 0 0 0 0 0 0 0 0 0 0 0 0 0 0
105 94 70 96 98 163 125 154 150 17 17 64 18 0 3 0 1 0 0 0 0 0 0 0 0 0 0 0 0 0 0 0 0 0 0 0 0 0 0 0 0 0 0
55 42 45 60 87 170 166 41 49 32 27 4 0 6 0 0 0 0 0 0 0 0 0 0 0 0 0 0 0 0 0 0 0 0 0 0 0 0 0 0 0 0 0
26 50 25 145 109 102 54 44 25 7 17 0 0 3 0 0 0 0 0 0 0 0 0 0 0 0 0 0 0 0 0 0 0 0 0 0 0 0 0 0 0 0 0
35 41 59 101 31 39 27 35 3 2 0 0 0 0 0 0 0 0 0 0 0 0 0 0 0 0 0 0 0 0 0 0 0 0 0 0 0 0 0 0 0 0 0
40 12 22 12 57 9 17 5 0 0 0 0 0 0 0 0 0 0 0 0 0 0 0 0 0 0 0 0 0 0 0 0 0 0 0 0 0 0 0 0 0 0 0
21 28 50 38 35 0 0 0 0 0 0 0 0 0 0 0 0 0 0 0 0 0 0 0 0 0 0 0 0 0 0 0 0 0 0 0 0 0 0 0 0 0 0
10 39 1 3 0 0 0 0 0 0 0 0 0 0 0 0 0 0 0 0 0 0 0 0 0 0 0 0 0 0 0 0 0 0 0 0 0 0 0 0 0 0 0
24 0 1 0 0 0 0 0 0 0 0 0 0 0 0 0 0 0 0 0 0 0 0 0 0 0 0 0 0 0 0 0 0 0 0 0 0 0 0 0 0 0 0
0 0 0 0 0 0 0 0 0 0 0 0 0 0 0 0 0 0 0 0 0 0 0 0 0 0 0 0 0 0 0 0 0 0 0 0 0 0 0 0 0 0 0

GFSMA_con_mucape_060.txt.gz
CAPE
47 67 131 56 0 7 2 2 0 0 0 0 0 0 0 0 0 0 0 0 3 0 0 0 0 0 0 0 0 0 0 0 0 0 0 0 0 0 1 2 2 2 2
35 37 135 111 24 0 0 0 0 0 0 0 0 0 0 0 0 0 0 0 0 0 0 0 0 0 0 0 0 0 0 0 0 0 0 0 0 0 0 0 0 1 4
24 10 87 129 61 14 0 0 0 0 0 0 0 0 0 0 0 0 0 0 0 0 0 0 0 0 0 0 0 0 0 0 0 0 0 0 0 0 0 0 0 0 0
0 0 68 121 90 47 0 0 0 0 0 0 0 0 0 0 0 0 0 0 0 0 0 0 0 0 0 0 0 0 0 0 0 0 0 0 0 0 0 0 0 0 0
5 0 14 45 105 41 1 2 4 6 0 0 0 0 0 0 0 0 0 0 0 0 0 0 0 0 0 0 0 0 0 0 0 0 0 0 0 0 0 0 0 0 0
170 9 4 34 126 104 3 10 10 6 0 0 0 0 0 0 0 0 0 0 0 0 0 0 0 0 0 0 0 0 0 0 0 0 0 0 0 0 0 0 0 0 0
378 228 64 62 101 91 2 15 19 7 0 0 0 0 0 0 0 0 0 0 0 0 0 0 0 0 0 0 0 0 0 0 0 0 0 0 0 0 0 0 0 0 0
535 381 286 169 108 41 17 53 42 20 0 0 0 0 0 0 0 0 0 0 0 0 0 0 0 0 0 0 0 0 0 0 0 0 0 0 0 0 0 0 0 0 0
753 572 470 310 168 96 58 76 87 80 65 30 25 16 0 0 0 0 0 0 0 0 0 0 0 0 0 0 0 0 0 0 0 0 0 0 0 0 0 0 0 0 0
852 767 642 478 235 198 142 127 146 129 142 57 47 60 33 6 8 1 0 0 0 0 0 0 0 0 0 0 0 0 0 0 0 0 0 0 0 0 0 0 0 0 0
813 798 692 580 338 257 200 179 183 113 131 130 40 61 74 67 49 25 7 0 0 0 0 0 0 0 0 0 0 0 0 0 0 0 0 0 0 0 0 0 0 0 0
612 717 628 517 438 295 291 238 186 125 191 152 37 33 88 96 37 31 9 4 0 0 0 0 0 0 0 0 0 0 0 0 0 0 0 0 0 0 0 0 0 0 0
483 634 550 549 442 326 336 288 174 115 75 68 54 73 184 36 30 20 27 3 0 0 0 0 0 0 0 0 0 0 0 0 0 0 0 0 0 0 0 0 0 0 0
292 450 471 393 455 329 150 153 69 57 66 94 79 74 58 51 13 35 37 6 0 0 0 3 0 0 0 0 0 0 0 0 0 0 0 0 0 0 0 0 0 0 0
215 230 209 385 358 318 108 82 56 63 94 114 100 37 24 78 58 28 10 2 0 0 0 2 0 0 0 0 0 0 0 0 0 0 0 0 0 0 0 0 0 0 0
126 192 160 189 291 207 70 58 45 70 76 109 94 129 60 9 17 16 17 0 1 0 0 0 0 0 0 0 0 0 0 0 0 0 0 0 0 0 0 0 0 0 0
62 149 131 121 109 71 55 51 27 50 112 96 139 161 90 3 11 1 2 0 0 0 0 0 0 0 0 0 0 0 0 0 0 0 0 0 0 0 0 0 0 0 0
1 125 115 95 74 62 33 45 61 73 111 98 149 93 0 1 0 0 0 0 0 0 0 0 0 0 0 0 0 0 0 0 0 0 0 0 0 0 0 0 0 0 0
5 90 157 157 82 42 40 36 45 64 94 72 27 4 6 1 2 0 0 0 0 0 0 0 0 0 0 0 0 0 0 0 0 0 0 0 0 0 0 0 0 0 0
68 183 141 75 54 43 11 6 13 8 28 66 0 8 7 0 0 0 0 0 0 0 0 0 0 0 0 0 0 0 0 0 0 0 0 0 0 0 0 0 0 0 0
249 155 92 35 36 5 16 21 5 4 9 6 6 0 0 0 0 0 0 0 0 0 0 0 0 0 0 0 0 0 0 0 0 0 0 0 0 0 0 0 0 0 0
177 171 124 77 38 8 1 12 8 0 1 0 0 0 0 0 0 0 0 0 0 0 0 0 0 0 0 0 0 0 0 0 0 0 0 0 0 0 0 0 0 0 0
1 0 57 2 18 28 5 0 11 0 0 0 0 0 0 0 0 0 0 0 0 0 0 0 0 0 0 0 0 0 0 0 0 0 0 0 0 0 0 0 0 0 0
2 4 8 10 2 0 0 0 0 0 0 0 0 0 0 0 0 0 0 0 0 0 0 0 0 0 0 0 0 0 0 0 0 0 0 0 0 0 0 0 0 0 0
4 6 1 0 0 1 0 0 0 0 0 0 0 0 0 0 0 0 0 0 0 0 0 0 0 0 0 0 0 0 0 0 0 0 0 0 0 0 0 0 0 0 0
0 0 0 0 0 0 0 0 0 0 0 0 0 0 0 0 0 0 0 0 0 0 0 0 0 0 0 0 0 0 0 0 0 0 0 0 0 0 0 0 0 0 0

GFSMA_con_mucape_063.txt.gz
CAPE
115 139 115 38 29 40 20 38 0 0 0 0 0 0 0 0 0 0 0 0 9 0 0 0 0 0 0 0 0 0 0 0 0 0 0 0 0 0 0 0 0 1 1
66 88 112 90 19 3 0 0 0 0 0 0 0 0 0 0 0 0 0 1 0 0 0 0 0 0 0 0 0 0 0 0 0 0 0 0 0 0 0 0 0 0 0
58 27 56 77 71 0 0 0 0 0 0 0 0 0 0 0 0 0 0 0 0 0 0 0 0 0 0 0 0 0 0 0 0 0 0 0 0 0 0 0 0 0 0
35 31 30 66 90 37 1 0 0 0 0 0 0 0 0 0 0 0 0 0 0 0 0 0 0 0 0 0 0 0 0 0 0 0 0 0 0 0 0 0 0 0 0
109 33 18 46 78 69 31 0 0 0 0 0 0 0 0 0 0 0 0 0 0 0 0 0 0 0 0 0 0 0 0 0 0 0 0 0 0 0 0 0 0 0 0
240 160 50 7 42 107 73 0 0 0 0 0 0 0 0 0 0 0 0 0 0 0 0 0 0 0 0 0 0 0 0 0 0 0 0 0 0 0 0 0 0 0 0
358 274 166 3 0 26 104 28 0 0 9 0 0 0 0 0 0 0 0 0 0 0 0 0 0 0 0 0 0 0 0 0 0 0 0 0 0 0 0 0 0 0 0
527 462 361 175 29 19 89 84 0 16 0 0 0 0 0 0 0 0 0 0 0 0 0 0 0 0 0 0 0 0 0 0 0 0 0 0 0 0 0 0 0 0 20
686 638 532 364 206 77 75 86 18 20 35 17 16 8 1 0 0 0 0 0 0 0 0 0 0 0 0 0 0 0 0 0 0 0 0 0 0 0 0 0 0 0 0
704 780 697 532 309 161 154 115 59 42 58 64 45 44 20 10 9 0 0 0 0 7 0 0 0 0 0 0 0 0 0 0 0 0 0 0 0 0 0 0 0 0 0
708 742 789 715 502 407 190 187 134 63 93 107 102 93 69 37 22 14 7 9 4 2 0 0 0 0 0 0 0 0 0 0 0 0 0 0 0 0 0 0 0 0 0
493 607 700 730 598 447 420 339 228 135 135 128 134 74 147 78 55 36 24 19 22 9 3 0 0 0 0 0 0 0 0 0 0 0 0 0 0 0 0 0 0 0 0
413 535 626 550 586 467 448 344 281 188 154 106 125 125 168 112 58 25 16 3 5 5 7 5 1 1 0 0 0 0 0 0 0 0 0 0 0 0 0 0 0 0 0
347 346 314 236 446 478 388 320 218 202 142 137 97 99 85 77 42 2 16 21 0 2 2 2 0 0 1 6 0 0 0 0 0 0 0 0 0 0 0 0 0 0 0
176 165 176 200 230 385 380 302 199 143 130 113 61 70 65 73 74 18 7 2 5 0 6 4 0 1 0 1 0 0 0 0 0 0 0 0 0 0 0 0 0 0 0
38 68 79 90 93 143 363 328 267 126 52 71 56 67 89 114 57 13 7 4 2 2 23 0 0 0 1 1 0 0 0 0 0 0 0 0 0 0 0 0 0 0 0
1 26 34 47 81 65 81 138 175 109 63 72 24 26 39 46 47 31 22 1 2 3 0 0 0 0 0 0 0 0 0 0 0 0 0 0 0 0 0 0 0 0 0
0 0 16 43 67 117 124 94 249 54 55 1 13 20 23 23 8 51 1 1 0 0 0 0 0 0 0 0 0 0 0 0 0 0 0 0 0 0 0 0 0 0 0
2 5 13 45 222 90 96 71 77 54 10 3 20 64 24 31 0 1 0 0 0 0 0 0 0 0 0 0 0 0 0 0 0 0 0 0 0 0 0 0 0 0 0
10 32 55 43 144 194 112 128 82 14 25 16 11 18 8 0 0 0 0 0 0 0 0 0 0 0 0 0 0 0 0 0 0 0 0 0 0 0 0 0 0 0 0
135 294 143 106 355 145 168 125 70 45 16 10 11 0 0 0 0 0 0 0 0 0 0 0 0 0 0 0 0 0 0 0 0 0 0 0 0 0 0 0 0 0 0
151 155 152 199 180 138 162 80 28 16 3 0 0 0 0 0 0 0 0 0 0 0 0 0 0 0 0 0 0 0 0 0 0 0 0 0 0 0 0 0 0 0 0
14 0 0 50 22 74 41 5 5 0 0 0 0 0 0 0 0 0 0 0 0 0 0 0 0 0 0 0 0 0 0 0 0 0 0 0 0 0 0 0 0 0 0
1 1 0 0 0 0 0 0 0 0 0 0 0 0 0 0 0 0 0 0 0 0 0 0 0 0 0 0 0 0 0 0 0 0 0 0 0 0 0 0 0 0 0
0 0 0 1 4 0 0 0 0 0 0 0 0 0 0 0 0 0 0 0 0 0 0 0 0 0 0 0 0 0 0 0 0 0 0 0 0 0 0 0 0 0 0
0 0 0 0 0 0 0 0 0 0 0 0 0 0 0 0 0 0 0 0 0 0 0 0 0 0 0 0 0 0 0 0 0 0 0 0 0 0 0 0 0 0 0

GFSMA_con_mucape_066.txt.gz
CAPE
76 133 90 7 0 0 12 44 37 2 4 0 0 0 0 0 0 0 0 0 31 0 0 0 0 0 0 0 0 0 0 0 0 0 0 0 0 0 0 1 1 1 1
80 172 191 133 20 2 10 39 29 0 0 0 0 0 0 0 0 0 0 4 4 0 0 0 0 0 0 0 0 0 0 0 0 0 0 0 0 0 0 0 0 0 0
144 150 173 189 159 9 8 21 28 0 0 0 0 0 0 0 0 0 0 0 0 0 0 0 0 0 0 0 0 0 0 0 0 0 0 0 0 0 0 0 0 0 0
115 132 121 126 161 125 21 2 1 0 0 0 0 0 0 0 0 0 0 0 0 0 0 0 0 0 0 0 0 0 0 0 0 0 0 0 0 0 0 0 0 0 0
98 103 83 93 131 146 81 12 0 0 0 0 0 0 0 0 0 0 0 0 0 0 0 0 0 0 0 0 0 0 0 0 0 0 0 0 0 0 0 0 0 0 0
224 110 83 62 74 165 106 65 0 0 0 0 0 0 0 0 0 0 0 0 0 0 0 0 0 0 0 0 0 0 0 0 0 0 0 0 0 0 0 0 0 0 0
250 235 167 134 42 112 174 110 15 0 0 0 0 0 0 0 0 0 0 0 0 0 0 0 0 0 0 0 0 0 0 0 0 0 0 0 0 0 0 0 0 0 0
378 318 271 266 126 66 152 147 43 16 0 0 0 0 0 0 0 0 0 0 0 0 0 0 0 0 0 0 0 0 0 0 0 0 0 0 0 0 0 0 0 0 0
670 428 452 435 286 143 110 121 29 63 6 4 8 0 0 0 0 0 0 0 0 0 0 0 0 0 0 0 0 0 0 0 0 0 0 0 0 0 0 0 0 0 0
555 606 467 497 451 331 227 90 49 71 35 16 12 21 10 9 14 0 0 0 0 0 0 0 0 0 0 0 0 0 0 0 0 0 0 0 0 0 0 0 0 0 0
366 961 571 449 547 526 435 187 65 66 89 49 42 49 34 25 29 36 6 0 0 0 5 5 0 0 0 0 0 0 0 0 0 0 0 0 0 0 0 0 0 0 0
287 383 489 629 492 523 493 363 280 145 162 120 66 54 84 83 37 105 42 16 11 0 7 15 0 0 0 0 0 0 0 0 0 0 0 0 0 0 0 0 0 0 0
435 422 487 566 308 177 449 403 326 304 178 186 171 96 105 118 85 57 64 19 39 8 6 10 1 2 1 0 0 1 0 0 0 0 0 0 0 0 0 0 0 0 0
380 182 320 320 512 410 356 193 373 259 241 203 212 132 132 141 116 56 79 56 64 21 4 18 16 0 0 1 0 5 0 0 0 0 0 0 0 0 0 0 0 0 0
196 209 63 147 147 196 241 222 228 382 261 192 161 111 145 152 134 90 72 40 2 15 16 21 2 0 5 1 0 1 0 0 1 0 0 0 0 0 0 0 0 0 0
4 2 16 49 57 50 54 68 199 231 229 233 194 129 60 138 69 98 17 38 46 32 32 1 3 0 0 0 0 0 0 0 0 0 0 0 0 0 0 0 0 0 0
1 0 1 4 21 104 62 66 66 238 342 317 257 189 18 10 20 51 77 57 36 3 12 1 0 0 0 0 0 0 0 0 0 0 0 0 0 0 0 0 0 0 0
0 1 1 2 5 37 63 181 194 175 280 313 353 78 97 95 45 21 31 87 25 10 0 0 0 0 0 0 0 0 0 0 0 0 0 0 0 0 0 0 0 0 0
0 1 1 0 15 14 71 149 253 281 326 280 223 111 86 41 15 17 21 28 0 0 0 0 0 0 0 0 0 0 0 0 0 0 0 0 0 0 0 0 0 0 0
0 0 2 2 20 82 126 201 503 325 292 233 106 85 47 26 13 1 0 0 0 0 0 0 0 0 0 0 0 0 0 0 0 0 0 0 0 0 0 0 0 0 0
0 0 7 16 55 83 255 243 292 306 249 134 72 28 19 6 0 0 0 0 0 0 0 0 0 0 0 0 0 0 0 0 0 0 0 0 0 0 0 0 0 0 0
7 20 15 52 54 48 37 161 248 278 153 94 29 6 2 0 0 0 0 0 0 0 0 0 0 0 0 0 0 0 0 0 0 0 0 0 0 0 0 0 0 0 0
0 0 0 3 8 46 48 35 19 13 37 0 0 0 0 0 0 0 0 0 0 0 0 0 0 0 0 0 0 0 0 0 0 0 0 0 0 0 0 0 0 0 0
0 0 0 0 4 0 0 0 0 0 0 0 0 0 0 0 0 0 0 0 0 0 0 0 0 0 0 0 0 0 0 0 0 0 0 0 0 0 0 0 0 0 0
0 0 0 0 0 0 0 0 0 0 0 0 0 0 0 0 0 0 0 0 0 0 0 0 0 0 0 0 0 0 0 0 0 0 0 0 0 0 0 0 0 0 0
0 0 0 0 0 0 0 0 0 0 0 0 0 0 0 0 0 0 0 0 0 0 0 0 0 0 0 0 0 0 0 0 0 0 0 0 0 0 0 0 0 0 0

GFSMA_con_mucape_069.txt.gz
CAPE
24 5 0 0 0 0 0 3 30 24 5 0 0 0 0 0 0 0 0 0 21 0 0 0 0 0 0 0 0 0 0 0 0 0 0 0 0 0 0 0 0 1 2
25 59 87 23 0 0 0 11 18 8 1 1 0 0 0 0 0 0 0 0 6 0 0 0 0 0 0 0 0 0 0 0 0 0 0 0 0 0 0 0 0 0 0
52 51 155 204 133 9 0 1 14 0 0 0 0 0 0 0 0 0 0 0 0 5 0 0 0 0 0 0 0 0 0 0 0 0 0 0 0 0 0 0 0 0 0
70 134 170 179 174 149 11 0 7 1 0 0 0 0 0 0 0 0 0 0 0 0 0 0 0 0 0 0 0 0 0 0 0 0 0 0 0 0 0 0 0 0 0
90 141 170 151 94 187 83 31 15 0 0 0 0 0 0 0 0 0 0 0 0 0 0 0 0 0 0 0 0 0 0 0 0 0 0 0 0 0 0 0 0 0 0
147 190 202 162 143 190 129 147 55 1 0 0 0 0 0 0 0 0 0 0 0 0 0 0 0 0 0 0 0 0 0 0 0 0 0 0 0 0 0 0 0 0 0
355 329 337 221 209 189 202 101 131 10 0 0 0 0 0 0 0 0 0 0 0 0 0 0 0 0 0 0 0 0 0 0 0 0 0 0 0 0 0 0 0 0 0
733 468 478 430 365 292 264 128 202 54 0 0 0 0 0 0 0 0 0 0 0 0 0 0 0 0 0 0 0 0 0 0 0 0 0 0 0 0 0 0 0 0 0
1109 895 562 551 559 435 340 378 158 112 4 0 0 0 0 0 0 0 0 0 0 0 0 0 0 0 0 0 0 0 0 0 0 0 0 0 0 0 0 0 0 0 0
568 696 878 624 573 570 483 326 351 193 44 3 19 9 2 1 6 0 1 12 10 0 0 0 0 0 0 0 0 0 0 0 0 0 0 0 0 0 0 0 0 0 0
647 469 478 673 617 552 544 375 292 271 106 63 50 66 35 22 26 35 18 24 16 8 5 0 0 0 0 8 11 0 0 0 0 0 0 0 0 0 0 0 0 0 0
996 540 669 513 443 499 760 484 236 205 262 180 83 95 129 70 47 89 107 48 45 46 73 1 2 0 5 11 2 0 0 0 0 0 0 0 0 0 0 0 0 0 0
600 485 433 539 469 592 601 623 336 139 219 226 164 155 138 180 101 92 103 143 51 37 72 123 4 6 0 4 5 4 2 1 0 0 1 2 1 2 0 0 0 0 0
401 505 282 631 521 355 411 624 578 612 398 264 223 162 163 184 240 98 98 89 112 53 74 89 38 11 11 7 1 11 1 3 2 4 5 1 1 0 0 0 0 0 0
52 35 318 302 246 311 444 284 317 261 228 164 116 131 133 179 164 171 110 49 1 45 15 1 0 2 7 1 1 1 4 2 0 5 1 0 0 0 0 0 0 0 0
0 0 0 0 90 34 114 185 198 126 141 99 135 189 134 154 238 233 21 5 0 0 0 34 20 30 4 1 0 1 4 0 0 0 0 0 0 0 0 0 0 0 0
0 0 1 2 1 1 3 8 56 78 131 152 231 407 504 324 192 80 45 10 5 0 1 29 26 12 0 0 0 0 0 0 2 3 0 0 0 0 0 0 0 0 0
0 0 0 0 0 0 2 3 6 49 54 130 232 367 379 183 148 98 10 2 36 13 11 14 3 9 0 0 0 0 0 0 0 0 0 0 0 0 0 0 0 0 0
0 0 0 0 0 0 0 3 2 58 50 94 293 305 376 237 54 42 49 41 2 1 4 1 0 0 0 0 0 0 0 0 0 0 0 0 0 0 0 0 0 0 0
0 0 0 0 0 0 3 13 29 108 273 214 180 340 281 227 87 61 31 11 2 2 0 0 0 0 0 0 0 0 0 0 0 0 0 0 0 0 0 0 0 0 0
0 0 0 0 0 0 3 25 18 105 92 155 225 221 181 160 19 10 7 10 2 0 0 0 0 0 0 0 0 0 0 0 0 0 0 0 0 0 0 0 0 0 0
0 0 0 2 7 3 11 7 5 35 65 87 76 49 48 32 5 0 0 0 0 0 0 0 0 0 0 0 0 0 0 0 0 0 0 0 0 0 0 0 0 0 0
0 0 0 0 0 0 0 0 12 8 21 8 3 0 10 0 0 0 0 0 0 0 0 0 0 0 0 0 0 0 0 0 0 0 0 0 0 0 0 0 0 0 0
0 0 0 0 0 0 0 0 0 0 0 0 0 0 0 0 0 0 0 0 0 0 0 0 0 0 0 0 0 0 0 0 0 0 0 0 0 0 0 0 0 0 0
0 0 0 0 0 0 0 0 0 0 0 0 0 0 0 0 0 0 0 0 0 0 0 0 0 0 0 0 0 0 0 0 0 0 0 0 0 0 0 0 0 0 0
0 0 0 0 0 0 0 0 0 0 0 0 0 0 0 0 0 0 0 0 0 0 0 0 0 0 0 0 0 0 0 0 0 0 0 0 0 0 0 0 0 0 0

GFSMA_con_mucape_072.txt.gz
CAPE
0 0 0 0 0 0 0 0 0 0 0 0 0 0 0 0 0 0 0 0 0 0 0 0 0 0 0 0 0 0 0 0 0 0 0 0 0 0 0 0 0 0 0
4 5 0 0 0 0 0 0 0 0 0 0 0 0 0 0 0 0 0 0 0 0 0 0 0 0 0 0 0 0 0 0 0 0 0 0 0 0 0 0 0 0 0
0 7 13 6 0 0 0 0 0 0 0 0 0 0 0 0 0 0 0 0 0 0 0 0 0 0 0 0 0 0 0 0 0 0 0 0 0 0 0 0 0 0 0
0 0 8 56 67 43 0 0 0 0 0 0 0 0 0 0 0 0 0 0 0 0 0 0 0 0 0 0 0 0 0 0 0 0 0 0 0 0 0 0 0 0 0
5 6 44 59 107 115 61 4 0 0 0 0 0 0 0 0 0 0 0 0 0 0 0 0 0 0 0 0 0 0 0 0 0 0 0 0 0 0 0 0 0 0 0
73 39 83 100 69 84 119 63 0 0 0 0 0 0 0 0 0 0 0 0 0 0 0 0 0 0 0 0 0 0 0 0 0 0 0 0 0 0 0 0 0 0 0
204 146 119 110 94 71 108 97 58 17 0 0 0 0 0 0 0 0 0 0 0 0 0 0 0 0 0 0 0 0 0 0 0 0 0 0 0 0 0 0 0 0 0
325 244 236 195 160 123 108 150 119 81 55 8 0 0 0 0 0 0 3 0 0 0 0 0 0 0 0 0 0 0 0 0 0 0 0 0 0 0 0 0 0 0 0
838 543 318 279 265 218 180 155 198 143 75 64 6 1 0 0 0 0 17 22 8 0 0 0 0 0 0 0 0 0 0 0 0 0 0 0 0 0 0 0 0 0 0
401 512 790 595 374 371 342 250 244 228 132 88 85 42 22 3 2 0 0 4 29 14 8 19 4 0 0 0 0 0 1 3 1 0 0 0 0 0 0 0 0 0 0
434 438 436 471 664 477 459 465 395 336 256 188 152 167 61 37 48 44 24 17 9 30 21 13 31 33 6 0 0 0 1 11 11 3 0 0 0 0 0 0 0 0 0
546 714 703 513 358 887 915 622 693 606 327 388 308 215 173 131 94 97 97 70 68 62 83 74 42 39 63 42 1 6 0 3 9 5 1 3 2 3 3 0 6 1 0
117 437 474 404 349 406 597 529 598 696 559 506 492 357 157 116 126 131 212 157 103 104 100 59 53 4 26 18 38 2 1 4 0 10 18 9 2 1 1 3 2 0 0
11 151 222 240 198 345 465 444 333 327 494 493 369 375 396 312 265 112 136 175 137 130 133 44 3 27 10 3 5 0 1 2 1 1 4 4 4 5 0 0 1 0 0
0 1 1 2 7 155 148 176 276 317 353 410 413 357 373 250 263 327 216 158 171 116 122 56 34 4 3 5 0 3 0 1 3 5 5 1 0 0 1 5 0 0 0
0 0 0 0 2 3 6 3 25 108 234 171 314 402 348 227 222 190 139 244 158 169 91 9 0 1 1 1 5 1 4 0 5 0 0 0 1 0 1 0 0 0 0
0 0 0 0 2 0 1 3 2 4 9 89 112 150 87 126 222 283 308 347 188 92 26 1 1 1 0 7 2 5 6 1 0 6 1 2 0 0 0 0 0 0 0
0 0 0 0 0 0 0 0 0 0 2 6 9 20 116 178 234 392 262 244 93 68 34 54 2 0 4 1 5 5 0 1 0 0 0 0 0 0 0 0 0 0 0
0 0 0 0 0 0 0 0 0 2 3 3 82 106 100 181 178 139 289 252 30 9 3 0 0 0 0 0 0 0 0 0 0 0 0 0 0 0 0 0 0 0 0
0 0 0 0 0 0 0 0 0 0 0 7 17 114 261 105 48 123 92 67 21 37 12 7 1 0 0 0 2 0 0 0 0 0 0 0 0 0 0 0 0 0 0
0 0 0 0 0 0 0 0 0 1 1 4 22 27 27 66 27 25 2 1 2 0 0 0 0 0 0 0 0 0 0 0 0 0 0 0 0 0 0 0 0 0 0
0 0 0 0 0 0 0 0 0 0 5 12 10 7 9 11 0 0 0 1 0 0 0 0 0 0 0 0 0 0 0 0 0 0 0 0 0 0 0 0 0 0 0
0 0 0 0 0 0 0 0 0 0 5 4 1 2 1 0 0 0 0 0 2 0 0 0 0 0 0 0 0 0 0 0 0 0 0 0 0 0 0 0 0 0 0
0 0 0 0 0 0 0 0 0 0 0 0 0 0 0 0 0 0 0 0 0 0 0 0 0 0 0 0 0 0 0 0 0 0 0 0 0 0 0 0 0 0 0
0 0 0 0 0 0 0 0 0 0 0 0 0 0 0 0 0 0 0 0 0 0 0 0 0 0 0 0 0 0 0 0 0 0 0 0 0 0 0 0 0 0 0
0 0 0 0 0 0 0 0 0 0 0 0 0 0 0 0 0 0 0 0 0 0 0 0 0 0 0 0 0 0 0 0 0 0 0 0 0 0 0 0 0 0 0

GFSMA_con_mucape_075.txt.gz
CAPE
0 0 0 0 4 0 0 0 0 0 0 0 0 0 0 0 0 0 0 2 27 0 0 0 0 0 0 0 0 0 0 0 0 0 0 0 0 0 0 0 0 0 0
11 7 0 0 0 5 5 0 0 0 0 0 0 0 0 0 0 0 0 0 0 0 0 0 0 0 0 0 0 0 0 0 0 0 0 0 0 0 0 0 0 0 0
20 11 0 0 0 2 1 0 0 0 0 0 0 0 0 0 0 0 0 0 0 0 0 0 0 0 0 0 0 0 0 0 0 0 0 0 0 0 0 0 0 0 0
12 0 0 0 0 1 2 0 0 0 0 0 0 0 0 0 0 0 0 0 0 0 0 0 0 0 0 0 0 0 0 0 0 0 0 0 0 0 0 0 0 0 0
0 0 0 0 23 42 55 12 0 0 1 4 0 0 0 0 0 0 0 0 0 0 0 0 0 0 0 0 0 0 0 0 0 0 0 0 0 0 0 0 0 0 0
50 21 8 10 38 73 99 89 44 4 12 15 16 0 0 0 0 0 0 0 0 0 0 0 0 0 0 0 0 0 0 0 0 0 0 0 0 0 0 0 0 0 0
219 146 94 51 59 68 93 108 87 71 48 32 0 5 0 0 0 0 0 0 0 0 0 0 0 0 0 0 0 0 0 0 0 0 0 0 0 0 0 0 0 0 0
272 263 220 157 103 74 80 97 118 115 112 103 47 13 0 0 0 0 0 0 0 0 0 0 3 9 2 0 0 0 0 0 0 0 0 0 0 0 0 0 0 0 0
540 263 208 220 230 200 159 156 150 142 142 117 53 30 16 2 4 9 2 0 1 0 6 18 12 21 31 15 3 0 0 0 0 0 0 0 0 0 0 0 0 0 0
502 624 541 363 207 275 261 244 202 194 161 135 90 53 32 29 47 15 28 26 40 30 15 23 26 21 27 38 14 0 0 0 0 0 2 3 0 0 0 0 0 0 0
290 259 237 260 304 454 362 319 335 360 192 188 154 161 145 85 62 59 49 43 48 58 50 45 53 35 32 65 29 17 1 5 0 0 0 6 8 8 10 1 0 6 19
401 347 369 361 374 294 389 534 500 423 435 422 375 373 322 160 116 78 51 54 80 67 29 77 42 68 47 57 37 20 30 2 9 4 4 2 6 1 1 0 4 5 5
38 166 414 514 432 220 55 205 216 422 345 307 341 343 344 412 419 342 319 217 129 112 65 59 36 10 32 8 11 11 4 4 0 1 4 5 4 7 6 2 0 3 1
0 0 87 227 288 164 200 182 355 375 115 221 295 283 311 333 392 396 386 266 180 109 83 94 127 8 4 2 4 0 1 1 0 1 0 1 6 0 9 0 2 0 1
0 0 0 25 9 8 1 8 13 17 64 115 225 302 390 392 399 409 319 449 205 122 85 101 18 2 1 1 1 0 0 1 0 3 0 0 5 0 0 1 4 2 1
0 0 0 0 0 0 0 0 0 0 2 2 13 35 86 204 241 349 424 410 274 251 126 49 54 15 5 1 0 4 1 3 3 5 7 1 0 0 0 0 0 0 0
0 0 0 0 0 0 0 0 0 0 0 1 2 10 12 9 38 129 161 213 305 169 151 122 80 10 6 4 1 6 3 5 1 0 0 0 0 0 0 0 0 0 0
0 0 0 0 0 0 0 0 0 0 0 0 0 2 1 6 8 104 120 313 246 414 279 128 29 13 12 0 2 4 0 0 0 0 0 0 0 0 0 0 0 0 0
0 0 0 0 0 0 0 0 0 0 0 0 0 2 4 6 23 23 27 138 148 222 42 7 19 6 7 0 1 0 1 0 0 0 0 0 0 0 0 0 0 0 0
0 0 0 0 0 0 0 0 0 0 0 0 0 3 8 4 12 31 11 7 19 30 9 4 0 3 1 0 0 0 0 0 0 0 0 0 0 0 0 0 0 0 0
0 0 0 0 0 0 0 0 0 0 0 0 0 0 4 9 13 6 4 7 11 2 1 0 0 0 0 0 0 0 0 0 0 0 0 0 0 0 0 0 0 0 0
0 0 0 0 0 0 0 0 0 0 0 0 0 0 0 4 0 0 0 0 0 0 0 0 0 0 0 0 0 0 0 0 0 0 0 0 0 0 0 0 0 0 0
0 0 0 0 0 0 0 0 0 0 0 0 0 0 0 0 0 0 0 0 0 0 0 0 0 0 0 0 0 0 0 0 0 0 0 0 0 0 0 0 0 0 0
0 0 0 0 0 0 0 0 0 0 0 0 0 0 0 0 0 0 0 0 0 0 0 0 0 0 0 0 0 0 0 0 0 0 0 0 0 0 0 0 0 0 0
0 0 0 0 0 0 0 0 0 0 0 0 0 0 0 0 0 0 0 0 0 0 0 0 0 0 0 0 0 0 0 0 0 0 0 0 0 0 0 0 0 0 0
0 0 0 0 0 0 0 0 0 0 0 0 0 0 0 0 0 0 0 0 0 0 0 0 0 0 0 0 0 0 0 0 0 0 0 0 0 0 0 0 0 0 0

GFSMA_con_mucape_078.txt.gz
CAPE
0 0 0 3 6 7 8 14 11 5 0 0 0 0 0 0 0 0 10 36 75 52 0 0 0 0 1 1 0 0 0 0 0 0 0 0 0 0 0 0 0 0 0
25 0 0 0 2 6 6 6 1 0 0 0 0 0 0 0 0 0 0 0 37 58 0 0 0 1 1 2 0 0 0 0 0 0 0 0 0 0 0 0 0 0 0
32 0 0 0 0 0 0 0 2 1 7 5 3 0 0 0 0 0 0 0 0 0 0 0 0 0 0 0 2 0 0 0 0 0 0 0 0 0 0 0 0 0 0
41 15 2 0 0 0 0 0 0 0 0 2 5 6 0 0 0 0 0 0 0 0 0 0 0 0 0 0 5 0 0 0 0 0 0 0 0 0 0 0 0 0 0
30 0 0 0 0 0 5 17 16 0 0 0 0 0 0 0 0 0 0 0 0 0 0 0 0 0 0 0 0 1 0 0 0 0 0 0 0 0 0 0 0 0 0
0 0 0 0 0 0 7 14 29 27 0 0 0 0 0 0 0 0 0 0 0 0 0 0 0 0 0 0 0 0 0 0 0 0 0 0 0 0 0 0 0 0 0
110 36 24 0 0 0 0 24 53 83 61 40 22 13 0 0 0 0 0 0 0 0 0 1 4 4 0 0 0 0 0 0 0 0 0 0 0 0 0 0 0 0 0
302 214 199 159 107 58 35 52 89 104 123 115 90 63 19 0 0 23 6 2 1 0 2 7 4 12 4 2 6 4 0 0 0 0 0 0 0 0 0 0 0 0 0
388 277 236 244 197 165 173 184 166 142 134 145 153 95 24 0 3 15 28 24 27 29 25 22 21 16 34 28 14 14 22 0 0 0 0 0 0 0 0 0 0 0 0
607 607 524 276 212 219 185 217 224 227 224 162 143 93 81 58 37 9 37 58 45 42 40 43 48 14 11 7 7 8 29 10 2 0 0 0 0 0 0 0 0 1 1
111 141 269 327 306 261 257 208 189 297 237 201 190 112 129 90 71 159 92 63 76 73 51 30 58 67 35 16 15 2 11 5 16 3 3 2 2 0 0 0 0 1 8
379 361 253 195 201 197 210 355 250 183 268 274 322 304 200 154 97 138 100 93 142 133 157 90 64 82 82 22 0 8 1 3 3 1 1 1 1 0 1 1 1 3 0
266 420 308 300 304 241 193 58 39 61 78 104 76 81 113 137 185 152 158 130 147 108 117 109 61 54 76 69 29 18 3 3 4 1 1 1 0 0 1 7 6 4 0
0 14 36 194 299 239 179 45 67 7 74 68 89 62 91 142 192 133 88 76 66 92 148 150 90 33 43 20 17 5 3 1 0 0 1 7 0 0 8 6 3 1 7
0 0 33 74 118 13 3 3 1 0 2 5 8 10 22 34 61 70 118 107 112 103 142 197 206 1 0 1 4 0 1 0 0 0 1 7 1 0 6 0 0 0 0
0 0 0 0 3 3 1 0 0 0 0 0 0 0 0 0 3 22 18 40 69 84 161 207 247 144 10 2 4 0 1 0 0 0 1 4 1 0 0 0 0 0 0
0 0 0 0 0 0 0 0 0 0 0 0 0 0 0 0 2 5 4 8 24 18 87 137 232 162 142 45 6 0 2 1 0 0 0 0 0 0 0 0 0 0 0
0 0 0 0 0 0 0 0 0 0 0 0 0 0 0 0 0 3 3 2 3 25 36 3 36 3 7 0 4 0 2 0 0 0 0 0 0 0 0 0 0 0 0
0 0 0 0 0 0 0 0 0 0 0 0 0 0 0 0 0 0 2 3 7 5 5 5 11 6 13 4 3 2 0 0 0 0 0 0 0 0 0 0 0 0 0
0 0 0 0 0 0 0 0 0 0 0 0 0 0 0 0 0 3 0 1 4 2 0 8 8 3 0 0 0 0 0 0 0 0 0 0 0 0 0 0 0 0 0
0 0 0 0 0 0 0 0 0 0 0 0 0 0 0 0 0 0 0 0 0 3 3 3 4 6 4 0 0 0 0 0 0 0 0 0 0 0 0 0 0 0 0
0 0 0 0 0 0 0 0 0 0 0 0 0 0 0 0 0 0 0 0 0 0 0 0 0 0 0 0 0 0 0 0 0 0 0 0 0 0 0 0 0 0 0
0 0 0 0 0 0 0 0 0 0 0 0 0 0 0 0 0 0 0 0 0 0 0 0 0 0 0 0 0 0 0 0 0 0 0 0 0 0 0 0 0 0 0
0 0 0 0 0 0 0 0 0 0 0 0 0 0 0 0 0 0 0 0 0 0 0 0 0 0 0 0 0 0 0 0 0 0 0 0 0 0 0 0 0 0 0
0 0 0 0 0 0 0 0 0 0 0 0 0 0 0 0 0 0 0 0 0 0 0 0 0 0 0 0 0 0 0 0 0 0 0 0 0 0 0 0 0 0 0
0 0 0 0 0 0 0 0 0 0 0 0 0 0 0 0 0 0 0 0 0 0 0 0 0 0 0 0 0 0 0 0 0 0 0 0 0 0 0 0 0 0 0

GFSMA_con_mucape_081.txt.gz
CAPE
0 4 0 6 17 29 9 4 7 8 1 0 0 0 0 0 0 0 3 60 95 124 8 0 0 0 1 2 1 0 0 1 0 0 0 0 0 0 0 0 0 0 1
5 0 0 0 2 2 0 0 0 0 0 0 0 2 0 0 0 0 0 17 42 143 39 0 0 0 0 4 3 0 0 2 0 0 0 0 0 0 0 0 0 0 0
15 0 0 0 0 0 0 0 0 0 0 0 0 0 0 0 0 0 0 0 14 40 76 0 0 1 2 0 0 0 0 0 0 0 0 0 0 0 0 0 0 0 0
39 30 10 0 0 0 0 0 0 0 0 0 0 0 0 0 0 0 0 0 0 0 0 49 18 0 2 0 0 0 0 0 0 0 0 0 0 0 0 0 0 0 0
106 55 36 0 0 0 0 0 0 0 0 0 0 0 0 0 0 0 0 0 0 0 0 0 0 3 1 0 0 0 0 0 0 0 0 0 0 0 0 0 0 0 0
127 74 58 0 0 0 0 0 0 0 0 13 0 0 0 0 0 0 0 0 0 0 0 0 0 0 0 2 0 0 0 0 0 0 0 0 0 0 0 0 0 0 0
150 93 64 0 0 0 0 0 0 0 5 34 33 23 12 0 10 47 26 12 20 16 1 0 0 0 2 4 1 0 0 0 0 0 0 0 0 0 0 0 0 0 0
264 252 211 97 66 52 20 24 4 0 0 41 60 130 27 1 0 22 22 21 28 28 24 21 23 28 19 2 4 6 6 4 0 0 0 0 0 0 0 0 0 0 0
273 232 196 214 192 162 153 147 115 96 62 88 127 96 92 8 1 0 5 12 24 32 24 14 17 26 26 24 33 33 15 6 10 0 9 0 0 0 0 0 0 0 0
572 494 418 365 318 254 217 232 164 125 164 162 212 169 132 85 57 23 6 5 7 10 16 17 10 16 41 64 58 21 2 2 0 0 1 3 1 1 1 0 0 0 0
414 399 462 501 397 312 257 216 155 223 77 118 142 98 89 71 73 64 50 38 31 28 13 50 43 39 58 43 13 16 11 10 5 2 0 2 0 0 1 0 0 0 1
227 223 180 215 227 235 169 182 177 253 215 227 95 102 85 49 46 52 49 34 10 7 1 3 31 39 54 34 16 7 6 2 3 1 1 0 0 0 0 0 0 0 1
0 120 333 281 168 129 116 97 125 109 70 54 66 54 54 31 54 57 50 30 25 21 7 2 4 18 49 32 108 7 0 0 1 0 0 0 0 0 6 10 0 0 1
0 0 68 376 161 147 114 83 89 30 12 13 17 17 39 21 42 42 55 36 17 26 13 3 2 8 7 23 145 98 0 0 0 0 0 0 0 0 0 0 0 1 6
0 0 0 26 70 83 80 30 8 5 1 2 0 0 3 3 0 9 11 7 12 6 4 5 2 3 6 11 46 44 0 0 0 0 2 0 3 0 0 0 0 1 0
0 0 7 15 42 31 16 11 2 0 1 0 0 0 0 0 0 2 0 5 12 13 6 5 3 7 13 8 24 0 1 1 1 5 0 1 0 0 0 0 1 0 0
0 0 0 0 1 4 1 1 2 0 0 0 0 0 0 0 0 0 0 0 0 4 1 8 7 6 7 9 7 6 4 2 0 2 4 1 3 0 0 0 0 0 0
0 0 0 0 0 0 0 0 0 0 0 0 0 0 0 0 0 0 0 0 0 0 0 0 0 5 1 7 5 18 8 3 0 0 0 0 0 0 0 0 0 0 0
0 0 0 0 0 0 0 0 0 0 0 0 0 0 0 0 0 0 0 0 0 0 0 0 0 2 0 9 1 1 1 0 0 0 0 0 0 0 0 0 0 0 0
0 0 0 0 0 0 0 0 0 0 0 0 0 0 0 0 0 0 0 0 0 0 0 0 0 0 1 0 0 0 0 0 0 0 0 0 0 0 0 0 0 0 0
0 0 0 0 0 0 0 0 0 0 0 0 0 0 0 0 0 0 0 0 0 0 0 0 0 0 0 0 0 0 0 0 0 0 0 0 0 0 0 0 0 0 0
0 0 0 0 0 0 0 0 0 0 0 0 0 0 0 0 0 0 0 0 0 0 0 0 0 0 0 0 0 0 0 0 0 0 0 0 0 0 0 0 0 0 0
0 0 0 0 0 0 0 0 0 0 0 0 0 0 0 0 0 0 0 0 0 0 0 0 0 0 0 0 0 0 0 0 0 0 0 0 0 0 0 0 0 0 0
0 0 0 0 0 0 0 0 0 0 0 0 0 0 0 0 0 0 0 0 0 0 0 0 0 0 0 0 0 0 0 0 0 0 0 0 0 0 0 0 0 0 0
0 0 0 0 0 0 0 0 0 0 0 0 0 0 0 0 0 0 0 0 0 0 0 0 0 0 0 0 0 0 0 0 0 0 0 0 0 0 0 0 0 0 0
0 0 0 0 0 0 0 0 0 0 0 0 0 0 0 0 0 0 0 0 0 0 0 0 0 0 0 0 0 0 0 0 0 0 0 0 0 0 0 0 0 0 0

GFSMA_con_mucape_084.txt.gz
CAPE
3 13 32 33 34 37 23 5 1 2 0 0 0 0 0 0 0 0 0 7 77 186 63 1 0 0 0 1 0 0 0 2 1 2 6 0 2 0 0 0 6 5 9
32 0 0 0 0 5 9 0 0 0 0 0 0 0 0 0 0 0 0 0 33 129 144 40 1 0 0 3 0 0 0 3 1 1 0 0 0 0 0 0 0 0 0
41 0 0 0 0 0 0 0 0 0 0 0 0 0 0 0 0 0 0 0 0 39 145 82 15 1 0 2 5 0 0 0 0 0 0 0 0 0 0 0 0 0 0
54 41 2 0 0 0 0 0 0 0 0 0 0 0 0 0 0 0 0 0 0 0 16 170 175 13 0 2 5 0 0 0 0 0 0 0 0 0 0 0 0 0 0
75 90 41 25 0 0 0 0 0 0 0 0 0 0 0 0 0 0 1 0 0 0 0 2 16 43 65 0 6 0 0 0 0 0 0 0 0 0 0 0 0 0 0
112 131 114 59 31 0 0 0 0 0 0 0 0 9 27 16 12 16 33 32 20 10 2 0 0 0 0 34 5 1 1 0 0 0 0 0 0 0 0 0 0 0 0
182 173 156 121 62 31 0 0 0 0 0 0 0 14 20 23 27 21 19 11 8 6 7 11 3 0 4 4 62 3 0 8 5 21 0 0 0 0 0 0 0 0 0
164 204 181 164 123 59 45 48 32 14 21 32 21 30 5 1 0 0 0 0 0 2 6 0 0 0 2 11 40 44 74 46 16 1 3 1 0 1 0 0 0 0 0
182 187 153 170 185 157 165 151 140 109 80 70 64 52 43 10 9 9 9 2 0 0 0 0 4 2 8 3 2 25 33 39 9 6 0 2 3 4 5 5 4 1 0
518 435 411 428 388 302 237 211 174 144 123 140 21 80 47 48 61 38 11 4 9 11 37 24 17 17 19 31 33 26 27 18 3 5 1 0 0 0 1 1 0 0 1
475 532 517 428 306 241 233 195 206 194 136 92 76 83 21 34 67 37 14 12 7 28 17 16 3 10 5 10 20 28 36 11 2 2 1 0 0 0 0 1 0 0 0
487 321 315 287 295 295 278 292 246 150 111 96 31 81 102 39 28 18 21 9 11 21 20 3 2 0 0 0 6 12 23 18 8 0 0 0 0 1 0 0 16 98 71
0 6 12 123 185 223 173 116 92 107 74 21 5 21 35 41 32 31 41 17 18 19 3 0 2 4 8 4 8 1 0 40 2 0 2 3 3 1 0 0 36 0 0
0 0 0 5 262 274 151 94 56 43 33 26 18 12 10 23 15 33 28 7 4 6 1 8 4 1 5 10 5 3 1 4 1 0 0 0 3 0 0 0 0 0 0
0 2 0 2 1 229 229 75 55 47 26 8 5 0 0 0 0 2 3 4 8 10 0 0 0 4 2 1 2 2 0 1 0 0 3 0 0 0 0 1 1 3 0
0 2 7 5 28 38 42 18 14 11 6 1 0 0 0 0 0 0 0 2 2 0 0 0 0 3 6 6 1 1 0 0 8 1 0 0 0 7 3 2 0 4 0
0 0 0 4 18 4 5 8 5 3 1 1 0 0 0 0 0 0 0 0 0 0 0 0 0 0 0 0 1 0 0 0 0 0 0 7 1 4 0 0 0 0 0
0 0 0 0 0 0 0 0 0 0 0 0 0 0 0 0 0 0 0 0 0 0 0 0 0 0 0 0 0 0 0 0 1 8 1 0 0 0 0 0 0 0 0
0 0 0 0 0 0 0 0 0 0 0 0 0 0 0 0 0 0 0 0 0 0 0 0 0 0 0 0 0 0 0 0 2 0 0 0 0 0 0 0 0 0 0
0 0 0 0 0 0 0 0 0 0 0 0 0 0 0 0 0 0 0 0 0 0 0 0 0 0 0 0 0 0 0 0 0 0 0 0 0 0 0 0 0 0 0
0 0 0 0 0 0 0 0 0 0 0 0 0 0 0 0 0 0 0 0 0 0 0 0 0 0 0 0 0 0 0 0 0 0 0 0 0 0 0 0 0 0 0
0 0 0 0 0 0 0 0 0 0 0 0 0 0 0 0 0 0 0 0 0 0 0 0 0 0 0 0 0 0 0 0 0 0 0 0 0 0 0 0 0 0 0
0 0 0 0 0 0 0 0 0 0 0 0 0 0 0 0 0 0 0 0 0 0 0 0 0 0 0 0 0 0 0 0 0 0 0 0 0 0 0 0 0 0 0
0 0 0 0 0 0 0 0 0 0 0 0 0 0 0 0 0 0 0 0 0 0 0 0 0 0 0 0 0 0 0 0 0 0 0 0 0 0 0 0 0 0 0
0 0 0 0 0 0 0 0 0 0 0 0 0 0 0 0 0 0 0 0 0 0 0 0 0 0 0 0 0 0 0 0 0 0 0 0 0 0 0 0 0 0 0
0 0 0 0 0 0 0 0 0 0 0 0 0 0 0 0 0 0 0 0 0 0 0 0 0 0 0 0 0 0 0 0 0 0 0 0 0 0 0 0 0 0 0

GFSMA_con_mucape_087.txt.gz
CAPE
7 22 41 45 55 45 33 24 12 6 2 0 0 0 0 0 0 0 0 0 13 150 75 17 0 0 0 0 0 0 0 0 0 3 1 2 2 4 0 0 1 7 7
8 0 13 18 15 16 17 6 0 0 0 0 0 0 0 0 0 0 0 0 0 66 141 72 23 0 0 0 0 0 0 0 0 1 0 1 0 0 0 0 0 0 0
19 22 0 0 0 0 0 0 0 0 0 0 0 0 0 0 0 0 0 0 0 0 61 137 81 24 3 1 3 0 0 0 0 0 0 0 0 0 0 0 0 0 0
35 27 13 0 0 0 0 0 0 0 0 0 0 0 0 0 0 0 0 0 0 0 0 98 222 57 26 13 13 6 0 0 0 0 0 0 0 0 0 0 0 0 0
62 52 55 7 0 0 0 0 0 0 0 0 0 0 0 0 0 0 0 0 10 5 0 0 4 77 120 34 33 34 20 0 0 0 0 0 0 0 0 0 0 0 0
105 76 70 75 31 11 0 0 0 0 0 0 0 0 0 0 20 38 52 35 19 2 0 0 0 0 1 39 40 29 41 0 0 19 9 6 4 0 0 0 0 0 0
149 154 121 108 92 55 33 6 0 0 0 0 0 0 0 0 18 22 19 2 0 0 0 0 0 0 0 1 43 51 54 16 16 8 7 7 1 2 0 0 1 0 0
171 145 178 146 121 102 62 45 26 31 13 37 17 18 0 0 0 0 0 0 0 0 0 0 0 0 0 4 10 41 144 58 57 18 15 1 0 3 1 0 0 0 0
178 138 145 122 136 125 126 130 122 108 89 74 53 45 18 7 9 6 0 2 7 9 8 7 20 20 11 14 12 13 24 25 78 69 3 2 0 0 0 2 1 0 0
588 538 384 180 171 202 258 187 160 107 101 83 65 5 5 27 114 16 7 19 12 10 2 10 6 3 5 7 7 4 2 28 9 41 143 50 12 17 4 4 4 2 0
425 528 498 455 363 300 252 194 151 117 90 115 130 50 62 9 56 14 14 8 10 5 11 6 0 0 5 7 4 19 0 14 14 83 108 63 77 46 0 75 71 83 93
453 412 368 373 362 329 288 249 181 147 184 131 77 27 4 7 15 19 17 11 16 8 9 4 1 2 1 5 3 5 3 10 8 61 103 125 31 1 0 70 109 80 95
4 45 156 205 172 197 201 185 198 192 113 93 46 4 12 17 23 25 23 34 17 12 5 4 1 1 0 2 3 2 0 2 0 2 47 48 0 0 0 0 0 0 0
0 0 0 0 2 48 180 231 119 85 69 102 43 17 35 14 10 23 6 6 9 7 1 3 1 0 1 2 1 0 2 3 0 2 0 0 1 3 4 0 0 0 0
0 0 0 0 1 3 84 165 123 115 63 49 35 5 0 1 0 0 0 0 3 0 0 0 0 0 0 0 1 1 0 2 0 0 0 0 0 3 6 6 0 2 8
0 1 1 1 3 3 10 28 170 60 57 5 6 1 0 0 0 0 0 0 0 0 0 0 0 0 0 0 0 0 0 0 0 0 2 0 0 0 5 1 0 6 3
0 0 1 2 2 6 9 26 17 5 2 6 2 0 0 0 0 0 0 0 0 0 0 0 0 0 0 0 0 0 0 0 0 0 0 1 0 0 0 0 0 0 0
0 0 0 0 0 1 3 3 1 4 8 0 0 0 0 0 0 0 0 0 0 0 0 0 0 0 0 0 0 0 0 0 0 0 0 0 0 0 0 0 0 0 0
0 0 0 0 0 0 0 0 0 0 0 0 0 0 0 0 0 0 0 0 0 0 0 0 0 0 0 0 0 0 0 0 0 0 0 0 0 0 0 0 0 0 0
0 0 0 0 0 0 0 0 0 0 0 0 0 0 0 0 0 0 0 0 0 0 0 0 0 0 0 0 0 0 0 0 0 0 0 0 0 0 0 0 0 0 0
0 0 0 0 0 0 0 0 0 0 0 0 0 0 0 0 0 0 0 0 0 0 0 0 0 0 0 0 0 0 0 0 0 0 0 0 0 0 0 0 0 0 0
0 0 0 0 0 0 0 0 0 0 0 0 0 0 0 0 0 0 0 0 0 0 0 0 0 0 0 0 0 0 0 0 0 0 0 0 0 0 0 0 0 0 0
0 0 0 0 0 0 0 0 0 0 0 0 0 0 0 0 0 0 0 0 0 0 0 0 0 0 0 0 0 0 0 0 0 0 0 0 0 0 0 0 0 0 0
0 0 0 0 0 0 0 0 0 0 0 0 0 0 0 0 0 0 0 0 0 0 0 0 0 0 0 0 0 0 0 0 0 0 0 0 0 0 0 0 0 0 0
0 0 0 0 0 0 0 0 0 0 0 0 0 0 0 0 0 0 0 0 0 0 0 0 0 0 0 0 0 0 0 0 0 0 0 0 0 0 0 0 0 0 0
0 0 0 0 0 0 0 0 0 0 0 0 0 0 0 0 0 0 0 0 0 0 0 0 0 0 0 0 0 0 0 0 0 0 0 0 0 0 0 0 0 0 0

GFSMA_con_mucape_090.txt.gz
CAPE
26 51 82 86 115 111 89 73 44 34 34 16 0 0 0 0 0 0 0 0 0 63 114 41 0 0 0 0 0 0 0 0 0 0 0 3 2 4 7 0 1 4 16
2 23 50 58 57 45 40 34 11 0 0 0 0 0 0 0 0 0 0 0 0 0 98 92 56 7 0 1 2 0 0 0 0 0 0 0 0 0 0 0 0 0 0
23 17 0 6 15 4 0 10 1 0 0 0 0 0 0 0 0 0 0 0 0 0 1 134 126 58 16 4 13 0 0 0 0 0 0 0 0 0 0 0 0 0 0
62 38 24 0 0 0 0 0 0 0 0 0 0 0 0 0 0 0 0 0 0 0 0 50 177 173 49 37 32 30 0 0 0 0 0 0 0 0 0 0 0 0 0
99 84 59 23 0 0 0 3 0 0 0 0 0 0 0 0 0 0 0 5 0 0 0 0 2 66 137 69 49 47 48 0 0 0 0 0 1 5 7 6 1 0 0
195 141 124 103 48 21 23 0 0 0 0 0 0 0 0 0 7 30 42 27 11 0 0 0 0 0 0 72 80 51 63 81 1 2 0 0 0 0 0 0 0 0 0
428 335 247 167 120 73 51 22 0 0 0 0 0 0 0 9 14 47 44 36 0 0 0 0 0 0 0 2 61 89 85 98 95 8 11 11 4 0 12 0 5 0 0
564 417 338 293 184 85 66 41 29 21 13 8 0 9 43 103 67 28 3 0 0 0 0 1 1 2 1 2 5 33 82 102 104 91 11 1 13 8 0 0 6 4 5
629 477 282 265 214 148 107 85 76 59 57 70 81 54 26 8 1 1 0 2 0 1 10 6 4 2 2 4 13 15 13 9 86 129 86 10 2 6 8 8 16 4 3
485 390 381 323 205 138 110 181 105 79 68 63 52 89 82 42 13 26 11 2 0 5 8 11 6 1 0 0 0 0 4 7 23 120 118 50 22 12 16 40 52 62 50
604 529 527 512 433 330 264 222 182 129 90 79 158 51 108 9 14 19 21 22 3 0 0 1 8 6 0 0 0 0 4 5 9 65 112 143 174 70 89 60 52 56 64
607 528 396 390 445 430 354 264 221 148 147 141 97 150 119 47 14 0 8 14 22 6 1 0 0 0 0 0 0 0 2 3 12 16 66 88 108 96 4 7 31 49 1
48 106 194 332 383 695 567 522 314 302 183 138 161 97 136 63 42 24 24 39 30 5 3 0 0 0 0 0 0 0 2 3 2 2 37 23 2 8 2 1 0 4 4
0 0 0 0 14 62 236 155 178 173 186 167 97 83 63 22 10 19 20 21 9 8 1 0 0 0 0 0 0 0 2 0 0 4 0 0 3 0 0 0 7 4 6
0 0 0 0 1 2 2 30 67 159 201 101 63 45 39 34 6 0 3 10 11 19 15 0 0 0 0 0 0 0 0 0 2 4 2 0 0 0 0 3 5 10 9
0 0 0 0 0 0 0 2 32 85 121 60 52 42 13 2 0 0 0 0 0 4 0 0 0 0 0 0 0 0 0 0 0 0 0 0 0 2 1 0 0 8 0
0 0 0 0 0 0 0 4 5 11 9 24 50 13 1 1 3 0 0 0 0 0 0 0 0 0 0 0 0 0 0 0 0 0 0 0 0 0 1 0 0 0 0
0 0 0 0 0 1 1 10 7 8 18 8 4 0 0 0 0 0 0 0 0 0 0 0 0 0 0 0 0 0 0 0 0 0 0 0 0 0 0 0 0 0 0
0 0 0 0 0 0 0 2 3 2 2 2 1 0 0 0 0 0 0 0 0 0 0 0 0 0 0 0 0 0 0 0 0 0 0 0 0 0 0 0 0 0 0
0 0 0 0 0 0 0 0 0 0 0 0 0 0 0 0 0 0 0 0 0 0 0 0 0 0 0 0 0 0 0 0 0 0 0 0 0 0 0 0 0 0 0
0 0 0 0 0 0 0 0 0 0 0 0 0 0 0 0 0 0 0 0 0 0 0 0 0 0 0 0 0 0 0 0 0 0 0 0 0 0 0 0 0 0 0
0 0 0 0 0 0 0 0 0 0 0 0 0 0 0 0 0 0 0 0 0 0 0 0 0 0 0 0 0 0 0 0 0 0 0 0 0 0 0 0 0 0 0
0 0 0 0 0 0 0 0 0 0 0 0 0 0 0 0 0 0 0 0 0 0 0 0 0 0 0 0 0 0 0 0 0 0 0 0 0 0 0 0 0 0 0
0 0 0 0 0 0 0 0 0 0 0 0 0 0 0 0 0 0 0 0 0 0 0 0 0 0 0 0 0 0 0 0 0 0 0 0 0 0 0 0 0 0 0
0 0 0 0 0 0 0 0 0 0 0 0 0 0 0 0 0 0 0 0 0 0 0 0 0 0 0 0 0 0 0 0 0 0 0 0 0 0 0 0 0 0 0
0 0 0 0 0 0 0 0 0 0 0 0 0 0 0 0 0 0 0 0 0 0 0 0 0 0 0 0 0 0 0 0 0 0 0 0 0 0 0 0 0 0 0

GFSMA_con_mucape_093.txt.gz
CAPE
10 2 29 89 107 109 130 103 47 44 37 19 0 0 0 0 0 0 0 0 0 4 86 40 0 0 0 0 0 0 0 0 0 0 0 0 0 0 0 0 0 1 3
5 35 66 70 72 69 52 48 26 3 2 0 0 0 0 0 0 0 0 0 0 0 27 103 75 5 0 1 0 0 0 0 0 0 0 0 0 0 0 0 0 0 0
9 22 22 41 31 22 1 13 8 0 0 0 0 0 0 0 0 0 0 0 0 0 0 101 121 114 25 5 9 0 0 0 0 0 0 0 0 0 0 0 0 0 0
75 72 64 9 0 5 9 9 0 0 0 0 0 0 0 0 0 0 0 0 0 0 0 31 146 180 144 53 28 25 1 0 0 0 0 0 0 0 0 5 5 0 0
150 129 102 55 1 0 13 26 3 0 0 0 0 0 0 6 0 1 0 6 25 0 4 3 11 97 153 147 111 76 64 7 0 0 0 0 0 0 0 0 0 0 0
281 204 167 140 67 44 27 34 35 29 0 0 0 0 0 37 60 63 39 28 29 19 0 21 16 0 2 105 141 89 84 105 26 0 0 0 3 0 0 0 0 0 0
505 376 336 294 247 138 96 87 65 48 58 18 20 26 32 54 53 82 103 80 60 0 0 0 0 13 17 26 111 126 117 110 100 73 10 6 28 10 0 0 3 0 8
865 642 610 558 455 424 281 231 140 91 55 68 52 139 73 203 88 35 93 16 0 0 0 0 9 12 16 9 7 28 35 87 127 129 86 32 44 4 16 17 3 0 7
783 822 752 738 705 554 396 369 242 123 128 117 48 86 42 48 43 6 1 0 0 0 0 4 10 9 12 5 6 4 10 15 20 113 88 67 35 10 18 24 0 0 8
388 325 336 433 511 514 458 410 341 252 192 183 90 119 84 100 84 22 7 0 0 0 0 2 2 6 7 1 2 0 0 0 2 36 94 85 154 24 24 3 23 32 45
497 271 202 199 213 430 374 289 345 319 209 198 239 192 39 41 61 9 16 24 0 0 0 0 0 0 0 1 2 0 0 0 3 15 38 78 78 141 134 94 25 0 0
831 587 561 313 284 388 418 377 269 286 243 227 260 269 150 39 27 6 1 1 27 10 6 0 0 0 0 0 0 0 0 0 0 0 22 72 44 70 71 26 1 4 4
481 412 385 570 948 959 874 749 359 312 249 258 271 337 351 254 56 10 30 20 35 19 0 0 0 0 0 0 0 0 0 0 0 12 80 29 0 3 27 32 23 9 0
8 4 12 13 50 163 528 729 552 580 420 413 403 332 274 158 59 25 21 29 3 17 4 4 0 0 0 0 0 0 0 0 0 4 9 8 7 3 0 3 1 0 0
0 0 0 0 0 2 14 71 208 290 303 270 268 141 184 153 34 30 11 31 13 14 3 0 0 0 0 0 0 0 0 0 0 0 0 4 0 0 0 0 0 0 0
0 0 0 0 0 0 0 3 19 62 81 53 156 124 77 37 38 19 6 0 0 4 6 0 0 0 0 0 0 0 0 0 0 0 0 0 0 0 0 0 0 3 0
0 0 0 0 0 0 0 2 3 5 9 12 9 17 3 48 30 4 0 2 0 0 2 0 0 0 0 0 0 0 0 0 0 0 0 0 0 0 0 0 0 0 0
0 0 0 0 0 0 0 1 2 6 12 19 1 0 3 6 7 0 0 0 0 0 0 0 0 0 0 0 0 0 0 0 0 0 0 0 0 0 0 0 0 0 0
0 0 0 0 0 0 0 0 0 5 9 6 10 6 0 0 0 0 0 0 0 0 0 0 0 0 0 0 0 0 0 0 0 0 0 0 0 0 0 0 0 0 0
0 0 0 0 0 0 0 0 1 2 1 1 4 2 0 0 0 0 0 0 0 0 0 0 0 0 0 0 0 0 0 0 0 0 0 0 0 0 0 0 0 0 0
0 0 0 0 0 0 0 0 0 0 0 0 0 0 0 0 0 0 0 0 0 0 0 0 0 0 0 0 0 0 0 0 0 0 0 0 0 0 0 0 0 0 0
0 0 0 0 0 0 0 0 0 0 0 0 0 0 0 0 0 0 0 0 0 0 0 0 0 0 0 0 0 0 0 0 0 0 0 0 0 0 0 0 0 0 0
0 0 0 0 0 0 0 0 0 0 0 0 0 0 0 0 0 0 0 0 0 0 0 0 0 0 0 0 0 0 0 0 0 0 0 0 0 0 0 0 0 0 0
0 0 0 0 0 0 0 0 0 0 0 0 0 0 0 0 0 0 0 0 0 0 0 0 0 0 0 0 0 0 0 0 0 0 0 0 0 0 0 0 0 0 0
0 0 0 0 0 0 0 0 0 0 0 0 0 0 0 0 0 0 0 0 0 0 0 0 0 0 0 0 0 0 0 0 0 0 0 0 0 0 0 0 0 0 0
0 0 0 0 0 0 0 0 0 0 0 0 0 0 0 0 0 0 0 0 0 0 0 0 0 0 0 0 0 0 0 0 0 0 0 0 0 0 0 0 0 0 0

GFSMA_con_mucape_096.txt.gz
CAPE
0 0 142 103 82 84 92 66 79 46 32 16 0 0 0 0 0 0 0 0 0 21 53 19 0 0 0 0 0 0 0 0 0 0 0 0 0 0 0 0 2 5 5
0 0 19 127 85 107 104 87 41 22 17 2 0 0 0 0 0 0 0 0 0 0 27 60 75 2 0 0 0 0 0 0 0 0 0 0 0 0 0 0 0 0 0
2 22 42 51 46 56 37 25 13 0 0 0 0 0 0 0 0 0 0 0 0 0 0 43 107 147 25 3 6 0 0 0 0 0 0 0 0 0 0 0 0 0 0
16 17 24 26 25 19 1 0 0 0 0 0 0 0 0 0 0 0 0 0 0 0 0 15 206 210 158 121 57 31 4 0 0 0 0 0 0 0 0 0 0 0 0
78 52 55 8 0 4 1 0 0 0 0 0 0 0 0 0 0 0 0 0 0 0 0 0 1 81 126 188 171 133 95 10 2 0 0 0 0 0 0 0 0 0 0
153 118 93 48 12 0 0 0 0 0 0 0 0 0 0 0 0 0 0 0 0 0 0 0 0 0 12 118 146 131 147 106 70 5 0 0 0 4 0 0 0 0 0
268 187 154 154 116 45 11 2 7 0 0 0 0 0 0 7 4 12 0 25 23 3 0 0 0 0 1 24 74 118 155 173 130 89 73 26 4 16 11 12 0 0 0
518 404 286 292 266 232 149 113 97 61 28 23 0 0 15 53 86 89 29 34 4 10 0 2 4 7 7 9 8 27 23 23 95 146 79 102 27 45 21 10 5 3 0
637 595 542 445 396 363 324 234 184 137 80 37 33 25 43 37 14 29 48 31 4 0 4 13 2 5 6 16 11 8 6 10 17 34 96 74 100 21 24 13 21 10 0
351 369 444 447 385 360 402 277 229 180 159 139 125 151 125 99 103 46 17 3 0 0 0 6 0 1 0 3 0 0 1 0 0 9 39 55 65 112 52 38 33 18 1
368 290 278 265 269 243 272 346 274 221 164 165 157 167 169 151 101 99 105 39 0 0 0 0 0 1 0 0 0 0 0 0 0 1 7 31 35 79 139 136 83 18 0
456 344 269 212 194 206 173 174 165 224 198 203 227 202 212 176 71 97 38 16 30 26 1 1 5 0 0 0 0 0 0 0 0 0 12 61 63 76 115 59 24 27 17
20 172 229 334 264 340 248 257 215 237 276 380 288 354 277 270 278 201 80 12 4 8 4 0 0 0 0 0 0 0 0 0 2 26 66 39 18 37 32 24 11 6 6
8 1 0 31 84 99 114 146 198 341 408 352 253 339 232 228 196 129 68 19 24 34 14 8 2 0 0 0 0 0 0 0 0 2 10 14 2 0 0 28 26 13 2
1 15 12 7 0 2 11 11 18 74 156 209 170 121 177 120 185 120 81 42 29 4 7 5 0 0 0 0 0 0 0 0 0 0 0 0 0 0 0 0 0 0 0
0 0 0 0 0 0 0 0 2 8 67 97 123 135 100 59 39 75 50 32 11 0 3 2 1 1 0 0 0 0 0 0 0 0 0 0 0 0 0 0 0 0 0
0 0 0 0 0 0 0 0 0 1 6 16 23 73 31 21 13 27 9 22 12 0 0 2 0 0 0 0 0 0 0 0 0 0 0 0 0 0 0 0 0 0 0
0 0 0 0 0 0 0 0 2 4 7 4 4 18 11 12 9 4 22 9 0 0 0 0 0 0 0 0 0 0 0 0 0 0 0 0 0 0 0 0 0 0 0
0 0 0 0 0 0 0 0 0 2 3 8 7 14 11 14 10 8 6 0 0 0 0 0 0 0 0 0 0 0 0 0 0 0 0 0 0 0 0 0 0 0 0
0 0 0 0 0 0 0 0 0 0 3 3 3 5 5 2 6 0 0 0 0 0 0 0 0 0 0 0 0 0 0 0 0 0 0 0 0 0 0 0 0 0 0
0 0 0 0 0 0 0 0 0 0 0 1 4 4 1 3 1 0 0 0 0 0 0 0 0 0 0 0 0 0 0 0 0 0 0 0 0 0 0 0 0 0 0
0 0 0 0 0 0 0 0 0 0 0 0 0 0 0 0 0 0 0 0 0 0 0 0 0 0 0 0 0 0 0 0 0 0 0 0 0 0 0 0 0 0 0
0 0 0 0 0 0 0 0 0 0 0 0 0 0 0 0 0 0 0 0 0 0 0 0 0 0 0 0 0 0 0 0 0 0 0 0 0 0 0 0 0 0 0
0 0 0 0 0 0 0 0 0 0 0 0 0 0 0 0 0 0 0 0 0 0 0 0 0 0 0 0 0 0 0 0 0 0 0 0 0 0 0 0 0 0 0
0 0 0 0 0 0 0 0 0 0 0 0 0 0 0 0 0 0 0 0 0 0 0 0 0 0 0 0 0 0 0 0 0 0 0 0 0 0 0 0 0 0 0
0 0 0 0 0 0 0 0 0 0 0 0 0 0 0 0 0 0 0 0 0 0 0 0 0 0 0 0 0 0 0 0 0 0 0 0 0 0 0 0 0 0 0

GFSMA_con_mucape_099.txt.gz
CAPE
222 157 56 36 34 42 62 53 70 62 38 2 0 0 0 0 0 0 0 0 14 96 60 2 0 0 0 0 0 0 0 0 0 0 0 0 0 0 0 0 0 0 0
37 214 76 64 61 72 71 65 68 27 11 3 0 0 0 0 0 0 0 0 0 9 71 80 60 1 0 0 0 0 0 0 0 0 0 0 0 0 0 0 0 0 0
0 0 135 116 87 98 88 78 26 0 0 0 0 0 0 0 0 0 0 0 0 0 1 35 116 164 30 5 3 0 0 0 0 0 0 0 0 0 0 0 0 0 0
0 11 33 93 47 47 48 13 0 0 0 0 0 0 0 0 0 0 0 0 0 0 0 14 225 192 169 128 107 86 5 0 0 0 0 0 0 0 0 0 0 0 0
0 2 23 36 29 17 9 0 0 0 0 0 0 0 0 0 0 0 0 0 0 0 0 0 1 82 119 172 135 151 95 28 3 0 0 0 0 0 0 0 0 0 0
109 57 46 38 2 0 0 0 0 0 0 0 0 0 0 0 0 0 0 0 0 0 1 0 0 9 15 90 126 140 135 92 84 30 8 2 0 0 4 3 12 0 0
226 147 111 87 57 11 0 1 0 8 0 0 0 0 0 0 0 0 0 0 0 4 2 8 5 1 0 8 43 95 106 143 108 96 115 66 6 20 32 32 11 5 0
325 272 177 143 138 155 155 48 23 30 21 8 0 0 7 28 32 33 40 9 26 8 13 30 6 9 3 2 1 14 23 25 25 57 77 99 99 26 30 34 2 5 0
346 277 227 218 280 250 255 238 152 155 147 71 42 11 20 18 30 79 100 69 34 19 21 7 6 5 5 1 1 4 4 2 3 15 34 73 88 121 45 48 15 11 9
266 249 337 329 303 307 294 251 245 232 226 139 58 55 68 88 80 86 59 76 37 24 0 0 4 5 2 1 2 1 0 0 0 3 13 19 51 84 135 128 47 10 18
165 181 162 187 221 199 190 205 227 222 186 152 93 45 68 80 169 131 115 21 5 18 3 1 1 1 4 1 0 0 0 0 0 0 0 12 36 62 89 155 126 73 15
209 217 212 177 129 107 81 132 146 151 171 152 199 134 88 156 205 166 127 73 78 17 5 3 2 0 0 0 0 0 0 0 0 0 17 51 57 74 70 103 118 76 6
38 90 137 161 25 96 58 89 118 77 140 159 183 165 195 242 199 134 112 58 14 9 2 0 0 0 0 0 0 0 0 4 9 41 50 32 43 74 72 54 39 9 4
3 11 20 6 3 34 43 47 93 111 172 193 192 190 150 183 167 164 93 59 23 14 8 18 0 0 0 0 0 0 0 0 4 3 1 18 25 36 44 24 6 13 6
0 0 0 0 0 0 3 14 23 16 33 74 153 160 161 152 155 113 91 77 39 23 15 24 0 0 0 0 0 0 0 0 0 0 0 0 0 0 0 20 14 3 2
28 37 23 16 20 7 0 0 0 0 0 3 24 85 178 136 87 95 61 55 25 13 25 5 0 1 2 0 0 0 0 0 0 0 0 0 0 0 0 0 0 0 0
4 0 2 3 0 0 0 0 0 0 0 0 4 14 23 5 49 27 22 35 19 13 12 9 1 1 0 1 0 0 0 0 0 0 0 0 0 0 0 0 0 0 0
0 0 0 0 0 0 0 0 0 0 0 0 2 6 13 4 5 15 3 22 12 16 0 2 0 0 0 0 0 0 0 0 0 0 0 0 0 0 0 0 0 0 0
0 0 0 0 0 0 0 0 0 0 2 2 2 11 19 27 5 13 8 14 10 10 2 0 0 0 0 0 0 0 0 0 0 0 0 0 0 0 0 0 0 0 0
0 0 0 0 0 0 0 0 0 0 0 3 3 5 8 8 11 6 9 7 3 0 0 0 0 0 0 0 0 0 0 0 0 0 0 0 0 0 0 0 0 0 0
0 0 0 0 0 0 0 0 0 0 0 0 0 2 6 6 1 0 0 4 0 0 0 0 0 0 0 0 0 0 0 0 0 0 0 0 0 0 0 0 0 0 0
0 0 0 0 0 0 0 0 0 0 0 0 0 0 0 0 0 0 0 0 0 0 0 0 0 0 0 0 0 0 0 0 0 0 0 0 0 0 0 0 0 0 0
0 0 0 0 0 0 0 0 0 0 0 0 0 0 0 0 0 0 0 0 0 0 0 0 0 0 0 0 0 0 0 0 0 0 0 0 0 0 0 0 0 0 0
0 0 0 0 0 0 0 0 0 0 0 0 0 0 0 0 0 0 0 0 0 0 0 0 0 0 0 0 0 0 0 0 0 0 0 0 0 0 0 0 0 0 0
0 0 0 0 0 0 0 0 0 0 0 0 0 0 0 0 0 0 0 0 0 0 0 0 0 0 0 0 0 0 0 0 0 0 0 0 0 0 0 0 0 0 0
0 0 0 0 0 0 0 0 0 0 0 0 0 0 0 0 0 0 0 0 0 0 0 0 0 0 0 0 0 0 0 0 0 0 0 0 0 0 0 0 0 0 0

GFSMA_con_mucape_102.txt.gz
CAPE
78 12 11 0 0 0 4 0 0 0 0 0 0 0 0 0 0 0 0 0 2 125 18 0 0 0 0 0 0 0 0 0 0 0 0 0 0 0 0 0 0 0 0
214 129 79 26 17 12 16 18 30 34 27 0 0 0 0 0 0 0 0 0 0 38 182 92 24 1 0 0 0 0 0 0 0 0 0 0 0 0 0 0 0 0 0
85 215 104 56 54 64 64 48 44 21 7 0 0 0 0 0 0 0 0 0 0 0 22 65 137 143 48 25 3 0 0 0 0 0 0 0 0 0 0 0 0 0 0
90 171 177 119 115 122 116 88 64 13 0 0 0 0 0 0 0 0 0 0 0 0 0 15 238 217 168 137 112 91 12 13 6 0 0 0 0 0 0 0 0 0 0
3 15 13 82 192 138 127 62 36 8 0 0 0 0 0 0 0 0 0 0 0 0 0 0 0 68 170 202 113 151 113 84 29 11 9 0 0 0 0 0 1 0 0
0 16 48 80 78 70 51 24 5 0 0 0 0 0 0 0 0 0 0 0 0 0 2 1 0 0 18 57 88 132 176 104 125 90 49 19 0 0 1 1 14 12 0
167 65 23 34 24 11 4 7 5 10 3 0 0 0 0 0 0 0 0 0 19 9 60 6 18 26 6 0 15 42 35 41 73 139 135 122 66 0 6 15 3 9 0
381 210 157 71 49 36 19 21 15 16 28 29 14 0 1 0 0 6 15 40 19 34 26 18 32 38 12 2 1 4 9 11 12 44 87 120 130 109 16 15 1 0 4
474 376 348 199 119 117 105 87 88 73 91 75 70 51 24 16 24 56 68 68 57 65 67 35 24 25 3 0 0 0 2 2 1 10 29 71 94 107 108 67 23 3 16
574 367 303 226 208 223 202 133 126 155 113 111 108 91 69 69 53 29 40 55 53 68 53 21 20 17 15 0 0 0 0 0 0 0 4 25 51 67 107 147 127 46 8
474 286 234 220 269 233 159 159 122 106 107 127 82 54 50 62 75 47 0 51 63 67 16 14 10 8 12 0 0 0 0 0 0 0 0 6 36 40 61 122 156 105 53
233 195 139 104 84 61 49 52 68 84 95 64 80 61 47 54 23 61 71 65 69 53 32 12 3 6 0 0 0 0 0 0 0 0 30 34 47 70 47 77 162 153 40
161 182 112 27 19 21 34 17 18 42 49 54 64 36 54 84 93 91 124 97 57 60 35 14 6 2 1 0 0 0 0 1 6 38 57 64 60 57 63 82 83 69 10
46 53 14 1 1 0 1 0 15 12 51 12 2 43 94 119 176 156 115 95 50 58 44 29 5 3 0 0 0 0 0 2 5 4 4 0 0 15 2 12 8 0 20
0 0 0 0 0 0 0 1 16 42 59 72 90 97 107 193 167 141 149 189 107 45 15 25 5 0 2 0 0 0 0 0 0 0 0 0 0 8 31 22 9 15 2
0 0 0 3 3 0 0 0 0 0 0 0 0 3 19 65 94 138 168 162 123 64 39 2 3 7 3 0 2 0 0 0 0 0 0 0 0 0 1 11 7 0 0
96 89 90 49 13 5 0 0 0 0 0 0 0 1 2 7 7 11 34 32 29 48 45 2 3 10 0 0 1 0 0 0 0 0 0 0 0 0 0 0 0 0 0
0 0 0 0 0 0 0 0 0 0 0 0 0 0 1 1 1 4 7 13 13 28 39 28 40 6 1 0 0 0 0 0 0 0 0 0 0 0 0 0 0 0 0
0 0 0 0 0 0 0 0 0 0 0 0 0 1 3 5 2 3 9 34 16 10 31 7 8 6 0 0 0 0 0 0 0 0 0 0 0 0 0 0 0 0 0
0 0 0 0 0 0 0 0 0 0 0 0 0 1 4 5 20 8 14 7 23 15 9 1 4 1 0 0 0 0 0 0 0 0 0 0 0 0 0 0 0 0 0
0 0 0 0 0 0 0 0 0 0 0 0 0 0 0 3 2 5 7 6 9 12 2 0 0 0 0 0 0 0 0 0 0 0 0 0 0 0 0 0 0 0 0
0 0 0 0 0 0 0 0 0 0 0 0 0 0 0 0 0 0 0 0 0 0 0 0 0 0 0 0 0 0 0 0 0 0 0 0 0 0 0 0 0 0 0
0 0 0 0 0 0 0 0 0 0 0 0 0 0 0 0 0 0 0 0 0 0 0 0 0 0 0 0 0 0 0 0 0 0 0 0 0 0 0 0 0 0 0
0 0 0 0 0 0 0 0 0 0 0 0 0 0 0 0 0 0 0 0 0 0 0 0 0 0 0 0 0 0 0 0 0 0 0 0 0 0 0 0 0 0 0
0 0 0 0 0 0 0 0 0 0 0 0 0 0 0 0 0 0 0 0 0 0 0 0 0 0 0 0 0 0 0 0 0 0 0 0 0 0 0 0 0 0 0
0 0 0 0 0 0 0 0 0 0 0 0 0 0 0 0 0 0 0 0 0 0 0 0 0 0 0 0 0 0 0 0 0 0 0 0 0 0 0 0 0 0 0

GFSMA_con_mucape_105.txt.gz
CAPE
0 0 0 0 0 0 0 0 0 0 0 0 0 0 0 0 0 0 0 0 36 121 9 0 0 0 0 0 0 0 0 0 0 0 0 0 0 0 0 0 0 0 6
14 0 0 0 0 0 1 0 0 6 8 0 0 0 0 0 0 0 0 0 0 81 256 99 19 1 0 0 0 0 0 0 0 0 0 0 0 0 0 0 0 1 3
101 72 40 42 17 14 15 28 46 44 40 26 0 0 0 0 0 0 0 0 0 0 33 160 174 114 86 56 18 2 0 0 0 0 0 0 0 0 0 0 0 0 2
178 207 135 94 74 78 69 59 67 62 21 8 0 0 0 0 0 0 0 0 0 0 0 20 172 244 177 169 146 107 39 12 14 3 0 0 0 0 0 0 0 0 0
11 90 201 140 121 133 129 128 114 66 24 12 0 0 0 0 0 0 0 0 0 0 0 0 0 17 101 179 150 148 128 100 37 21 8 3 1 0 0 0 0 0 0
20 81 106 123 103 143 161 131 73 27 15 7 0 0 0 0 0 0 0 0 0 0 0 33 7 22 0 13 62 100 125 102 122 103 64 30 1 0 0 0 2 8 0
92 0 33 64 104 168 70 57 26 10 0 2 2 5 2 4 0 0 0 0 0 6 18 41 20 34 27 12 0 3 14 33 79 107 145 133 103 12 7 0 3 0 0
257 272 162 125 75 22 17 5 0 0 6 23 37 37 13 4 9 21 17 3 13 47 41 64 41 48 36 2 0 0 0 2 4 13 51 119 148 111 70 14 5 0 0
370 366 254 255 149 100 32 26 25 27 26 48 75 78 49 56 60 52 51 68 76 86 77 71 74 60 15 3 3 3 4 0 1 6 18 31 62 112 143 118 81 21 8
661 555 412 326 374 213 185 190 107 55 53 41 54 70 65 66 61 7 30 26 56 67 91 44 54 56 17 12 6 1 0 0 0 0 0 3 22 38 82 134 132 122 61
660 630 608 400 259 232 259 267 145 44 92 90 54 61 76 87 64 53 6 0 2 26 45 21 49 23 4 0 0 4 0 0 0 0 0 2 14 23 33 57 104 173 104
448 392 440 352 264 229 259 194 105 102 59 56 58 15 8 2 2 7 42 0 0 40 49 79 43 22 12 5 0 0 0 0 0 0 12 34 39 65 77 63 74 164 153
317 281 143 147 81 85 100 57 53 18 7 13 28 49 53 21 3 2 0 0 25 15 40 77 87 21 8 18 0 0 0 0 8 25 73 42 30 51 59 70 90 127 136
162 215 278 83 3 0 6 23 10 8 8 3 17 12 10 33 52 49 50 39 16 19 26 36 58 37 20 17 3 0 0 0 2 2 2 2 1 0 0 2 12 24 34
11 17 55 52 10 0 0 4 0 7 22 30 41 23 33 59 112 218 161 132 119 52 23 31 32 17 16 23 16 3 0 0 0 1 2 0 0 3 3 11 0 0 0
0 0 0 0 2 4 13 13 4 3 3 1 0 0 0 0 4 94 139 142 147 85 43 9 28 22 2 22 12 1 0 0 0 0 0 0 0 0 0 0 0 0 0
0 0 6 12 38 46 42 23 4 0 0 0 0 0 0 1 3 6 34 31 83 90 89 50 26 8 15 21 9 0 0 0 0 0 0 0 0 0 0 0 0 0 0
21 41 1 0 0 0 0 0 0 0 0 0 0 0 0 0 0 7 1 6 29 66 31 33 6 16 13 14 0 3 0 0 0 0 0 0 0 0 0 0 0 0 0
3 4 3 0 0 0 0 0 0 0 0 0 0 0 0 0 0 3 9 7 2 25 7 6 3 21 29 16 3 1 0 0 0 0 0 0 0 0 0 0 0 0 0
14 9 0 0 0 0 0 0 0 0 0 0 0 0 0 0 0 3 6 14 7 12 10 11 16 8 8 0 2 0 0 0 0 0 0 0 0 0 0 0 0 0 0
0 2 0 0 0 0 0 0 0 0 0 0 0 0 0 0 0 0 2 4 8 15 12 5 15 7 2 1 0 0 0 0 0 0 0 0 0 0 0 0 0 0 0
0 0 0 0 0 0 0 0 0 0 0 0 0 0 0 0 0 0 0 0 0 4 0 0 1 3 0 0 0 0 0 0 0 0 0 0 0 0 0 0 0 0 0
0 0 0 0 0 0 0 0 0 0 0 0 0 0 0 0 0 0 0 0 0 0 0 0 0 0 0 0 0 0 0 0 0 0 0 0 0 0 0 0 0 0 0
0 0 0 0 0 0 0 0 0 0 0 0 0 0 0 0 0 0 0 0 0 0 0 0 0 0 0 0 0 0 0 0 0 0 0 0 0 0 0 0 0 0 0
0 0 0 0 0 0 0 0 0 0 0 0 0 0 0 0 0 0 0 0 0 0 0 0 0 0 0 0 0 0 0 0 0 0 0 0 0 0 0 0 0 0 0
0 0 0 0 0 0 0 0 0 0 0 0 0 0 0 0 0 0 0 0 0 0 0 0 0 0 0 0 0 0 0 0 0 0 0 0 0 0 0 0 0 0 0

GFSMA_con_mucape_111.txt.gz
CAPE
3 2 1 0 0 0 0 0 0 0 0 0 0 0 0 0 0 0 0 0 0 2 0 0 0 0 0 0 0 0 0 0 0 0 0 0 0 0 2 3 3 5 5
0 0 0 0 0 0 0 0 0 0 0 0 0 0 0 0 0 0 0 0 0 5 120 48 23 1 0 0 0 0 0 0 0 0 0 0 0 0 0 0 0 3 3
0 0 0 0 0 0 0 0 0 0 0 0 0 0 0 0 0 0 0 0 0 0 2 181 155 119 79 47 6 1 0 0 0 0 0 0 0 0 0 0 0 0 1
0 0 0 0 0 0 1 2 2 16 26 10 5 0 0 0 0 0 0 0 0 0 0 0 43 116 106 129 96 67 51 7 9 2 2 3 0 0 0 0 0 0 0
1 0 0 7 2 4 12 17 20 41 54 47 10 0 0 0 0 0 0 0 0 0 0 0 0 0 24 110 101 81 73 95 60 26 20 17 7 0 0 0 0 0 0
49 60 35 39 52 52 51 60 73 87 79 43 6 3 0 0 0 0 0 0 0 0 0 0 0 7 19 18 50 79 68 70 90 136 95 51 26 2 0 1 0 0 0
68 85 116 112 104 101 112 109 118 109 79 20 0 0 2 2 2 4 32 36 18 11 19 37 35 20 20 25 21 21 37 22 15 23 91 129 122 58 12 10 8 3 0
5 20 24 54 126 124 98 91 156 127 40 5 6 6 12 0 2 15 32 43 41 35 25 53 48 55 35 40 27 1 0 0 0 0 0 7 86 136 120 81 21 14 4
99 69 49 45 56 61 56 56 179 87 25 22 24 43 11 0 3 17 33 36 52 46 42 30 41 55 64 50 42 22 0 0 0 0 6 4 7 25 101 117 120 105 53
123 129 118 115 84 94 95 109 76 29 55 18 10 33 33 40 25 46 5 3 13 20 8 20 7 6 32 45 41 21 0 0 0 0 0 0 0 0 37 72 127 128 150
80 118 147 160 236 180 79 58 95 69 57 74 85 54 25 17 8 40 27 2 9 1 1 13 3 4 3 8 52 37 5 0 0 0 0 0 4 6 10 13 63 86 119
96 173 203 247 208 161 66 54 128 128 88 91 79 97 60 36 13 16 3 6 0 2 3 5 20 20 6 20 35 59 7 0 0 0 0 7 22 31 26 21 53 98 116
89 142 281 225 187 122 122 231 184 231 122 97 96 88 103 103 28 9 4 8 3 4 1 4 54 56 39 44 54 69 54 9 5 18 63 6 1 1 6 10 21 121 126
105 201 366 683 128 70 45 46 38 28 26 3 4 0 1 13 40 54 31 41 0 4 0 0 41 24 28 49 88 78 44 13 8 9 4 0 0 3 0 0 8 14 103
186 168 56 2 0 0 0 0 3 8 3 3 5 3 6 7 6 3 3 18 33 0 0 2 6 21 26 43 63 39 34 36 19 12 7 0 0 0 0 0 0 8 18
113 70 8 0 0 0 0 0 0 0 0 0 0 0 0 0 0 0 0 0 6 8 0 3 1 2 17 36 6 13 35 25 18 11 21 0 0 0 0 0 0 5 17
0 0 0 0 0 0 0 0 0 0 0 0 0 0 0 0 0 0 0 0 0 0 6 13 12 1 2 32 18 51 40 29 14 25 6 3 0 0 0 0 0 0 8
0 0 0 0 0 0 0 0 0 0 0 0 0 0 0 0 0 0 0 0 0 2 4 7 7 4 9 9 3 26 22 17 23 7 24 6 0 0 0 0 0 0 0
0 0 0 0 0 0 0 0 0 0 0 0 0 0 0 0 0 0 0 0 0 0 2 5 2 10 6 12 15 8 17 27 30 2 13 0 0 0 0 0 0 0 0
0 0 0 1 0 0 0 0 0 0 0 0 0 0 0 0 0 0 0 0 0 0 0 4 11 4 6 4 10 9 16 10 26 5 2 0 0 0 0 0 0 0 0
0 0 0 0 0 0 0 0 0 0 0 0 0 0 0 0 0 0 0 0 0 0 0 0 4 6 6 11 7 8 4 0 5 4 4 0 0 0 0 0 0 0 0
0 0 0 0 0 0 0 0 0 0 0 0 0 0 0 0 0 0 0 0 0 0 0 0 0 0 0 5 6 12 7 6 0 1 0 0 0 0 0 0 0 0 0
0 0 0 0 0 0 0 0 0 0 0 0 0 0 0 0 0 0 0 0 0 0 0 0 0 0 0 0 0 0 0 0 0 0 0 0 0 0 0 0 0 0 0
0 0 0 0 0 0 0 0 0 0 0 0 0 0 0 0 0 0 0 0 0 0 0 0 0 0 0 0 0 0 0 0 0 0 0 0 0 0 0 0 0 0 0
0 0 0 0 0 0 0 0 0 0 0 0 0 0 0 0 0 0 0 0 0 0 0 0 0 0 0 0 0 0 0 0 0 0 0 0 0 0 0 0 0 0 0
0 0 0 0 0 0 0 0 0 0 0 0 0 0 0 0 0 0 0 0 0 0 0 0 0 0 0 0 0 0 0 0 0 0 0 0 0 0 0 0 0 0 0

GFSMA_con_mucape_114.txt.gz
CAPE
22 84 97 144 58 29 3 0 0 0 0 0 0 0 0 0 0 0 2 0 0 1 0 0 0 0 0 0 0 0 0 0 0 0 0 0 0 1 3 2 3 4 2
9 8 10 35 11 0 0 0 0 0 0 0 0 0 0 0 0 0 0 0 0 3 53 6 2 1 0 0 0 0 0 0 0 0 0 0 0 0 0 0 0 1 0
8 1 0 0 0 0 0 0 0 0 1 11 11 0 0 0 0 0 0 0 0 0 8 185 121 116 58 30 2 0 0 0 0 0 0 0 0 0 0 0 0 0 0
0 0 0 0 0 0 0 0 0 8 72 66 51 24 10 0 0 0 0 0 0 0 1 19 113 162 169 170 117 105 43 3 2 0 0 0 0 0 0 0 0 0 0
0 0 0 0 0 4 21 40 62 90 108 82 25 12 0 0 0 0 0 0 0 0 22 4 0 16 85 145 183 139 108 140 95 47 11 3 0 1 0 0 0 0 0
0 0 0 10 37 65 70 63 80 82 102 59 4 0 5 0 0 0 0 0 0 0 16 21 43 15 3 17 138 120 92 80 166 173 116 65 24 8 0 7 0 0 0
111 93 106 112 139 159 143 127 166 157 111 36 41 27 10 0 3 0 6 0 8 29 57 75 104 53 38 16 36 38 54 48 33 51 108 200 150 109 41 6 2 1 8
243 254 263 234 206 214 237 175 128 103 217 79 44 31 60 37 0 0 2 15 11 13 27 21 26 33 38 38 36 42 2 0 0 8 16 30 61 150 128 105 52 41 10
118 173 176 205 223 206 193 227 265 331 275 27 0 95 97 94 74 5 2 17 22 32 36 22 23 27 25 45 49 43 19 9 0 0 27 37 11 39 104 125 115 137 93
46 81 53 58 132 177 166 151 173 215 42 11 9 39 142 158 91 40 0 1 6 7 28 28 19 7 12 15 13 29 16 24 2 0 4 20 0 12 26 32 86 132 148
124 105 90 103 62 102 42 41 48 59 10 91 178 108 69 81 45 44 10 2 7 2 1 0 0 2 1 4 0 2 40 41 23 1 0 0 3 25 13 43 46 96 131
246 111 117 102 86 72 126 22 76 39 57 110 145 147 101 53 43 63 17 1 6 8 3 0 1 0 18 12 4 23 30 35 20 7 0 4 9 23 16 16 10 64 88
225 134 95 101 102 60 148 139 180 173 99 154 165 155 164 126 95 59 44 74 22 3 3 0 0 0 1 23 26 28 43 36 30 28 46 9 0 0 2 0 3 20 79
138 111 97 145 136 119 192 228 286 269 281 161 129 138 73 27 27 37 76 37 21 15 8 0 0 0 3 0 4 18 15 28 15 41 23 21 1 0 0 0 5 3 147
132 134 103 195 231 235 247 209 79 31 41 4 0 0 3 5 2 8 7 22 27 12 5 1 1 0 0 0 1 0 10 5 22 27 11 24 12 1 0 0 0 0 11
98 133 191 220 133 67 6 0 2 10 4 3 0 0 0 0 0 0 0 0 5 18 2 7 3 0 2 0 0 1 0 0 2 20 4 13 26 7 2 0 0 0 19
74 164 171 55 26 4 0 0 0 0 0 0 0 0 0 0 0 0 0 0 0 5 20 0 3 0 0 4 2 0 0 4 31 32 10 19 16 4 14 0 0 0 11
95 82 40 6 0 0 0 0 0 0 0 0 0 0 0 0 0 0 0 0 0 0 0 3 7 2 4 4 1 1 0 3 16 23 25 41 21 2 1 0 0 0 0
43 0 0 0 0 0 0 0 0 0 0 0 0 0 0 0 0 0 0 0 0 0 2 0 0 4 8 4 4 15 5 3 9 13 44 28 5 1 0 0 0 0 0
19 6 0 0 0 0 0 0 0 0 0 0 0 0 0 0 0 0 0 0 0 0 0 0 0 1 3 4 1 3 2 11 7 10 6 3 4 2 3 0 0 0 0
51 20 0 0 0 0 0 0 0 0 0 0 0 0 0 0 0 0 0 0 0 0 0 0 0 0 0 4 4 8 15 7 8 9 11 5 1 0 0 0 0 0 0
21 0 0 0 0 0 0 0 0 0 0 0 0 0 0 0 0 0 0 0 0 0 0 0 0 0 0 0 0 14 4 2 4 4 10 6 2 1 0 0 0 0 0
0 0 0 0 0 0 0 0 0 0 0 0 0 0 0 0 0 0 0 0 0 0 0 0 0 0 0 0 0 0 0 0 0 1 0 0 0 0 0 0 0 0 0
0 0 0 0 0 0 0 0 0 0 0 0 0 0 0 0 0 0 0 0 0 0 0 0 0 0 0 0 0 0 0 0 0 0 0 0 0 0 0 0 0 0 0
0 0 0 0 0 0 0 0 0 0 0 0 0 0 0 0 0 0 0 0 0 0 0 0 0 0 0 0 0 0 0 0 0 0 0 0 0 0 0 0 0 0 0
0 0 0 0 0 0 0 0 0 0 0 0 0 0 0 0 0 0 0 0 0 0 0 0 0 0 0 0 0 0 0 0 0 0 0 0 0 0 0 0 0 0 0

GFSMA_con_mucape_117.txt.gz
CAPE
47 72 70 91 34 36 0 0 0 0 0 0 0 0 0 0 0 0 1 0 0 0 0 0 0 0 0 0 0 0 0 0 0 0 0 0 0 0 1 2 4 1 4
30 83 77 180 99 53 2 0 0 0 0 0 0 0 0 0 0 0 2 0 0 16 19 2 1 0 0 0 0 0 0 0 0 0 0 0 0 0 0 0 0 0 2
67 149 136 121 72 26 0 0 0 0 0 0 0 0 0 0 0 0 0 0 0 0 31 132 137 92 33 46 5 0 0 0 0 0 0 0 0 0 0 0 0 0 0
55 59 74 44 12 0 0 0 0 0 18 55 64 34 11 5 0 0 0 0 0 0 0 70 156 201 191 208 170 176 101 20 1 0 0 0 0 0 0 0 0 0 0
12 18 8 3 0 0 0 0 0 8 98 86 59 37 10 0 0 0 0 0 0 0 24 18 22 59 101 153 213 202 183 198 176 109 27 8 0 0 0 0 0 0 0
0 1 0 0 0 1 35 59 66 102 133 133 35 1 1 0 0 0 0 0 0 0 4 76 18 16 9 7 90 147 150 107 175 187 161 122 68 11 1 1 1 4 0
0 0 0 0 18 66 72 69 112 142 172 124 79 50 20 12 0 0 0 0 11 26 29 76 106 81 46 24 17 30 47 65 71 60 63 123 147 94 72 25 5 0 2
0 0 36 74 108 144 108 201 273 317 349 314 100 188 131 76 0 0 0 0 0 13 30 48 41 45 67 35 52 39 32 27 2 8 18 33 58 117 150 157 87 66 21
185 167 190 152 249 256 334 418 357 427 383 398 63 182 91 163 143 6 0 0 0 1 3 22 18 21 27 21 24 45 37 45 24 8 49 65 69 87 117 176 181 177 136
346 344 355 330 368 376 410 376 420 624 531 301 61 80 180 166 129 70 3 0 0 3 3 10 14 17 10 2 1 2 6 9 7 1 7 86 82 64 79 66 103 142 181
166 210 155 131 171 330 450 415 222 259 221 130 286 328 105 100 118 76 61 6 0 0 0 14 7 5 8 0 0 0 0 5 16 37 19 61 27 61 84 85 124 143 170
126 100 129 154 201 253 176 53 56 84 132 213 335 265 211 163 83 31 14 21 17 1 0 0 0 0 0 0 0 0 0 1 6 14 7 20 39 57 59 36 10 57 85
140 134 95 130 162 143 107 55 70 142 240 301 304 258 214 157 111 41 32 3 17 6 0 0 0 0 0 0 0 0 0 0 0 2 0 8 24 15 23 0 0 0 0
274 162 72 127 65 57 75 83 92 183 175 168 156 175 159 44 7 9 8 7 7 9 2 2 0 0 0 0 0 0 0 0 0 1 33 9 17 10 18 4 0 0 2
189 180 139 130 113 84 69 76 133 108 399 226 136 101 17 2 1 2 3 12 35 9 0 0 8 0 0 0 0 0 1 0 0 7 17 30 44 32 1 5 0 0 0
101 164 163 144 167 118 124 185 297 199 145 44 5 2 0 0 0 0 4 2 4 4 4 0 0 0 0 0 0 0 0 1 0 6 3 1 11 13 1 4 1 0 1
72 77 116 105 99 66 89 99 28 3 2 0 0 0 0 0 0 0 1 0 4 6 4 1 1 0 0 1 0 0 0 7 2 1 7 6 11 12 34 10 7 0 0
64 49 34 72 165 132 76 19 0 0 0 0 0 0 0 0 0 0 0 2 0 1 3 3 5 1 0 0 0 1 0 7 3 0 0 1 10 5 13 0 5 0 1
5 30 87 109 171 39 44 1 0 0 0 0 0 0 0 0 0 0 0 0 0 0 0 0 0 0 0 0 8 2 2 14 12 9 5 5 5 9 7 6 2 0 0
83 79 89 30 25 0 0 0 0 0 0 0 0 0 0 0 0 0 0 0 0 0 0 0 0 0 0 0 3 1 2 0 11 14 5 10 8 4 12 4 6 0 0
73 51 5 7 20 11 0 0 0 0 0 0 0 0 0 0 0 0 0 0 0 0 0 0 0 0 0 0 0 0 0 13 6 12 23 27 14 7 5 8 4 1 0
42 35 34 23 23 10 0 0 0 0 0 0 0 0 0 0 0 0 0 0 0 0 0 0 0 0 0 0 0 0 0 0 0 3 7 5 9 11 10 3 0 0 0
60 54 51 51 38 24 19 2 0 0 0 0 0 0 0 0 0 0 0 0 0 0 0 0 0 0 0 0 0 0 0 0 0 0 1 0 0 0 0 1 0 0 0
53 51 14 0 0 0 1 1 4 1 0 0 0 0 0 0 0 0 0 0 0 0 0 0 0 0 0 0 0 0 0 0 0 0 0 0 0 0 0 0 0 0 0
0 0 0 0 0 0 0 1 0 0 0 0 0 0 0 0 0 0 0 0 0 0 0 0 0 0 0 0 0 0 0 0 0 0 0 0 0 0 0 0 0 0 0
7 1 0 0 0 0 0 0 0 0 0 0 0 0 0 0 0 0 0 0 0 0 0 0 0 0 0 0 0 0 0 0 0 0 0 0 0 0 0 0 0 0 0

GFSMA_con_mucape_120.txt.gz
CAPE
28 17 2 0 0 0 0 0 0 0 0 0 0 0 0 0 0 0 0 0 0 3 0 0 0 0 0 0 0 0 0 0 0 0 0 0 0 1 1 2 1 4 2
20 16 5 0 0 0 0 0 0 0 0 0 0 0 0 0 0 0 0 0 0 1 12 0 0 0 0 0 0 0 0 0 0 0 0 0 0 0 0 0 0 1 0
13 5 7 4 0 36 0 0 0 0 0 0 0 0 0 0 0 0 0 0 0 0 48 68 93 76 73 54 19 0 0 0 0 0 0 0 0 0 0 0 0 0 0
18 2 4 54 19 3 0 0 0 0 0 4 22 7 0 0 0 0 0 0 0 0 3 110 213 209 217 230 210 190 134 74 36 5 0 0 0 0 0 0 0 0 0
26 6 13 18 4 0 0 0 0 0 13 45 37 18 4 0 0 0 0 0 0 0 4 26 39 101 125 149 175 208 174 180 161 163 128 47 10 4 2 7 0 0 1
12 4 5 3 0 0 0 0 0 7 57 59 33 0 0 0 0 0 0 0 0 0 0 8 24 24 36 44 55 127 151 92 80 90 114 150 139 95 56 6 1 0 0
5 4 0 0 0 0 0 12 33 62 92 68 30 0 0 0 0 0 0 0 0 0 1 6 29 12 40 43 24 31 30 33 36 23 34 58 102 130 102 92 24 9 5
0 0 0 0 0 2 33 42 67 95 101 64 2 12 6 0 4 1 1 0 0 0 8 21 52 37 33 36 38 38 39 47 42 17 61 33 23 46 95 116 143 132 94
0 0 0 0 19 79 91 94 156 161 120 156 45 19 3 25 46 22 3 0 0 0 0 4 20 27 33 34 43 25 21 46 35 31 9 36 31 27 49 89 133 168 197
0 0 40 47 137 135 144 221 211 176 258 226 121 5 8 33 29 31 1 0 0 0 0 1 5 18 19 22 4 7 0 0 6 12 13 32 64 44 64 102 143 179 179
118 179 121 206 229 228 237 216 215 231 216 144 53 59 38 12 16 20 0 0 0 0 0 0 0 0 0 0 0 0 0 0 0 5 26 69 87 34 74 98 90 82 105
222 169 208 210 219 209 255 232 184 120 104 58 74 113 47 4 2 5 3 2 4 0 0 0 0 0 0 0 0 0 0 2 0 0 15 48 36 58 40 25 7 5 9
158 181 170 116 166 177 185 89 70 50 49 57 79 102 78 52 71 67 60 3 2 1 0 0 0 0 0 0 0 0 0 4 0 2 1 47 63 17 6 6 7 0 0
83 106 112 125 121 104 91 72 30 43 77 77 114 117 102 116 144 48 0 0 0 0 1 0 0 0 0 0 0 0 0 0 0 1 4 37 18 28 17 11 15 2 0
61 86 86 75 97 89 94 23 18 79 57 79 118 82 120 14 27 3 0 1 5 1 0 0 0 0 0 0 0 0 0 0 0 0 18 22 16 29 33 14 8 5 0
157 164 133 103 106 71 71 59 88 79 65 68 114 104 33 34 0 0 0 0 0 1 0 0 0 0 0 0 0 0 1 3 6 4 0 8 16 16 2 11 7 16 6
117 112 124 141 98 69 70 81 38 41 67 146 66 14 0 0 0 0 0 0 0 1 1 0 0 0 0 0 0 0 0 0 5 10 7 6 2 7 21 10 22 22 2
68 96 77 97 64 56 59 47 25 15 45 40 0 0 0 0 0 0 0 0 0 0 0 0 0 0 0 0 0 0 0 4 3 4 11 3 6 1 12 23 12 1 4
64 62 76 64 46 32 49 36 65 54 37 0 0 0 0 0 0 0 0 0 0 0 0 0 0 0 0 0 0 0 1 0 0 2 5 3 4 4 8 8 4 17 13
13 18 24 26 28 33 27 57 36 16 0 0 0 0 0 0 0 0 0 0 0 0 0 0 0 0 0 0 0 0 0 0 0 8 5 3 18 5 18 7 7 4 0
10 3 3 2 74 49 82 50 64 1 0 0 0 0 0 0 0 0 0 0 0 0 0 0 0 0 0 0 0 0 0 0 0 0 0 2 13 13 4 9 7 10 5
29 48 64 82 55 47 47 29 21 7 0 0 0 0 0 0 0 0 0 0 0 0 0 0 0 0 0 0 0 0 0 0 0 0 0 0 6 9 3 6 14 8 0
61 63 90 70 70 58 35 17 12 13 5 4 2 0 0 0 0 0 0 0 0 0 0 0 0 0 0 0 0 0 0 0 0 0 0 0 0 1 8 6 10 7 0
73 81 77 41 31 29 26 17 26 30 21 17 5 0 0 0 0 0 0 0 0 0 0 0 0 0 0 0 0 0 0 0 0 0 0 0 0 0 2 6 7 0 0
79 71 58 53 45 37 19 19 15 15 15 2 0 0 0 0 0 0 0 0 0 0 0 0 0 0 0 0 0 0 0 0 0 0 0 0 0 0 0 0 0 0 0
80 81 96 56 12 0 0 0 0 0 0 0 0 0 0 0 0 0 0 0 0 0 0 0 0 0 0 0 0 0 0 0 0 0 0 0 0 0 0 0 0 0 0

GFSMA_con_mucape_123.txt.gz
CAPE
4 0 0 0 0 0 0 0 0 0 0 0 0 0 0 0 0 0 0 0 0 0 0 0 0 0 0 0 0 0 0 0 0 0 0 0 0 3 16 26 4 2 2
0 0 0 0 0 0 0 0 0 0 0 0 0 0 0 0 0 0 0 0 0 0 14 9 10 7 0 0 0 0 0 0 0 0 0 0 0 0 0 0 0 0 0
0 0 0 0 0 0 0 0 0 0 0 0 0 0 0 0 0 0 0 0 0 0 41 73 89 85 84 66 40 3 0 0 2 0 0 0 0 0 0 0 0 0 0
0 0 0 0 0 0 0 0 0 0 0 0 0 0 0 0 0 0 0 0 0 0 4 102 239 228 207 215 210 172 152 94 59 10 1 0 0 0 0 0 0 0 0
0 0 0 0 0 0 0 0 0 0 0 0 22 3 0 0 0 0 0 0 0 0 0 0 32 105 157 182 150 96 119 98 111 142 140 85 24 1 0 0 0 0 0
0 0 0 0 0 1 0 0 0 0 16 30 17 6 0 0 0 0 0 0 0 0 0 0 3 16 23 83 71 106 119 94 70 70 63 92 104 140 99 13 2 0 0
9 13 0 0 2 0 0 0 0 1 26 29 19 0 0 0 0 0 0 0 0 0 0 0 8 13 23 47 56 80 105 72 47 30 46 48 40 106 134 121 123 52 36
13 7 1 4 19 16 0 0 9 53 55 31 24 0 1 0 0 0 2 0 0 0 0 0 9 20 33 55 48 36 28 29 19 58 38 103 83 99 104 112 138 154 138
15 7 1 13 39 0 0 14 50 56 63 51 27 0 1 0 0 0 5 0 0 0 0 0 0 4 12 29 33 48 43 4 5 0 17 46 106 108 102 102 112 148 214
18 12 21 26 5 0 23 42 82 96 137 63 27 8 0 0 0 0 0 0 0 0 0 0 0 0 5 16 2 0 0 0 0 2 25 63 100 144 125 150 164 197 161
36 30 0 0 0 19 72 106 165 173 203 63 65 83 8 0 0 0 0 0 0 0 0 0 0 0 0 0 0 0 0 0 0 0 22 120 113 110 122 106 96 67 38
65 0 3 6 75 109 121 195 221 190 202 174 95 48 13 0 0 0 0 2 0 0 0 0 0 0 0 0 0 0 0 0 0 2 1 23 106 42 60 32 20 2 3
0 43 63 82 171 187 230 247 192 208 142 93 61 99 45 8 5 5 0 5 0 0 0 0 0 0 0 0 0 0 0 0 0 0 3 6 38 6 2 3 3 5 17
39 96 147 226 223 234 255 200 201 113 74 56 76 77 40 13 9 14 4 0 0 0 0 0 0 0 0 0 0 0 0 0 0 0 10 15 6 10 5 8 0 23 13
134 234 262 257 249 215 207 159 78 68 63 86 96 96 53 21 51 65 3 0 0 0 0 0 0 0 0 0 0 0 0 0 1 0 9 1 6 10 9 17 3 11 4
253 313 338 286 130 145 80 95 86 74 76 97 94 55 37 51 37 65 5 0 0 0 0 0 0 0 0 0 0 0 0 0 0 1 4 17 24 12 4 0 0 1 0
197 250 198 140 114 60 99 75 60 61 69 70 94 65 38 37 1 0 0 0 0 0 0 0 0 0 0 0 0 0 1 0 0 0 3 16 19 10 8 7 19 10 3
90 94 141 112 118 136 137 113 111 69 40 55 56 91 95 6 0 0 0 0 0 0 0 0 0 0 0 0 0 0 0 0 0 0 0 0 3 7 6 3 13 12 3
140 168 173 151 128 127 111 93 71 38 17 26 43 73 4 0 0 0 0 0 0 0 0 0 0 0 0 0 0 0 0 0 0 0 0 0 4 3 7 3 13 5 22
58 87 91 101 83 77 82 68 50 17 23 22 62 59 8 0 0 0 0 0 0 0 0 0 0 0 0 0 0 0 0 0 0 0 0 0 1 1 8 5 9 11 5
0 24 19 52 47 36 47 29 33 2 14 44 82 8 0 0 0 0 0 0 0 0 0 0 0 0 0 0 0 0 0 0 0 0 0 0 0 1 1 11 13 8 4
33 39 13 0 2 3 4 17 35 41 62 70 20 2 0 0 0 0 0 0 0 0 0 0 0 0 0 0 0 0 0 0 0 0 0 0 0 0 8 11 5 8 5
33 30 18 27 30 58 35 13 4 40 63 9 8 3 0 3 1 0 0 0 0 0 0 0 0 0 0 0 0 0 0 0 0 0 0 0 0 0 3 9 7 11 10
50 53 44 52 26 25 16 39 45 9 8 14 17 19 16 14 4 0 0 0 0 0 0 0 0 0 0 0 0 0 0 0 0 0 0 0 0 0 4 9 9 6 8
40 102 41 56 58 40 6 13 1 13 15 25 28 34 23 14 8 0 0 0 0 0 0 0 0 0 0 0 0 0 0 0 0 0 0 0 0 0 0 0 1 4 3
31 49 63 77 34 15 11 19 17 46 21 35 29 10 17 13 3 0 0 0 0 0 0 0 0 0 0 0 0 0 0 0 0 0 0 0 0 0 0 0 3 0 0

GFSMA_con_mucape_126.txt.gz
CAPE
2 2 2 0 0 0 0 0 0 0 0 0 0 0 0 0 0 0 0 0 0 0 0 0 0 0 0 0 0 0 0 0 0 0 0 0 0 0 0 0 0 0 2
19 0 0 0 0 0 0 0 0 0 0 0 0 0 0 0 0 0 0 0 0 4 23 13 15 9 3 2 0 0 0 0 1 5 0 0 0 0 0 0 0 0 0
54 31 0 0 0 0 0 0 0 0 0 0 0 0 0 0 0 0 0 0 0 0 26 65 77 73 63 61 47 20 5 2 12 3 1 0 0 5 4 0 0 0 0
109 56 0 0 0 0 0 0 0 0 0 0 0 0 0 0 0 0 0 0 0 0 0 94 159 177 181 183 149 144 148 102 67 32 8 2 4 1 3 1 1 0 0
92 106 0 0 0 0 0 0 0 0 0 0 0 0 0 0 0 0 0 0 0 0 0 0 36 93 95 140 139 134 118 120 136 155 136 103 73 44 12 14 6 0 0
200 10 0 0 0 0 0 0 0 0 0 0 14 0 0 0 0 0 0 0 0 0 0 0 0 0 3 10 21 55 64 97 54 44 32 29 73 116 142 110 43 22 21
98 5 0 0 0 0 0 0 0 0 0 12 21 8 0 0 0 0 0 0 0 0 0 0 0 0 1 9 30 26 27 47 35 66 77 24 25 60 86 114 127 136 125
55 25 0 0 0 0 10 0 0 0 5 26 13 0 0 0 0 0 0 0 0 0 0 0 0 0 8 26 34 24 19 16 7 5 4 17 34 54 54 58 97 128 155
15 55 0 0 0 30 19 4 0 1 25 33 37 0 0 0 0 0 0 0 0 0 0 0 0 0 0 1 9 29 16 1 1 7 10 7 46 71 89 73 117 124 130
52 22 6 0 0 49 38 21 0 21 57 52 36 1 0 0 0 0 0 0 0 0 0 0 0 0 0 0 1 0 0 0 0 3 8 26 82 98 96 82 99 65 58
37 40 29 36 36 69 59 32 10 33 74 82 44 26 17 0 0 0 0 0 0 0 0 0 0 0 0 0 0 0 0 0 0 0 5 9 74 111 65 60 29 15 20
66 58 23 19 69 79 95 18 43 86 127 116 74 37 47 21 3 0 0 0 0 0 0 0 0 0 0 0 0 0 0 0 0 0 0 3 24 62 43 14 0 0 0
99 112 97 69 83 103 72 62 113 182 198 173 78 112 98 6 12 8 2 1 0 0 0 0 0 0 0 0 0 0 0 0 0 0 8 8 16 18 2 0 1 0 0
66 124 142 154 157 105 82 154 215 263 220 233 197 125 92 46 42 30 34 1 0 0 0 0 0 0 0 0 0 0 0 0 0 0 22 6 14 5 5 6 6 0 0
84 110 148 174 117 131 188 254 305 323 243 179 117 90 121 80 48 73 69 5 0 0 0 0 0 0 0 0 0 0 0 0 0 0 0 8 2 1 1 5 10 1 0
108 128 159 132 123 249 321 341 333 313 237 125 84 109 108 74 36 30 26 4 0 0 0 0 0 0 0 0 0 0 0 0 0 0 0 0 3 14 6 7 4 0 0
139 156 195 209 232 306 377 337 323 257 138 81 95 112 114 66 16 0 19 8 0 0 0 0 0 0 0 0 0 0 0 0 0 0 0 0 0 3 2 4 0 9 10
118 139 164 277 288 341 294 336 326 170 125 96 80 107 68 14 3 3 2 0 0 0 0 0 0 0 0 0 0 0 0 0 0 0 0 0 0 0 3 0 4 5 4
120 141 178 220 215 167 195 216 221 210 135 134 108 82 103 26 2 0 0 0 0 0 0 0 0 0 0 0 0 0 0 0 0 0 0 0 0 0 0 0 1 0 3
73 97 90 94 115 162 163 152 135 120 104 88 91 71 44 21 4 8 0 0 0 0 0 0 0 0 0 0 0 0 0 0 0 0 0 0 0 0 0 0 6 6 1
50 71 86 72 94 108 132 154 140 102 58 77 72 49 11 19 10 2 0 0 0 0 0 0 0 0 0 0 0 0 0 0 0 0 0 0 0 0 0 0 0 0 0
29 40 45 63 97 75 108 70 87 29 21 13 13 25 34 25 1 1 0 0 0 0 0 0 0 0 0 0 0 0 0 0 0 0 0 0 0 0 0 0 3 8 10
24 13 11 17 4 13 6 4 13 19 24 29 19 19 29 10 0 0 0 0 2 0 0 0 0 0 0 0 0 0 0 0 0 0 0 0 0 0 0 7 8 8 9
17 17 13 26 14 13 14 11 38 23 58 21 52 15 0 0 0 0 7 10 6 0 0 0 0 0 0 0 0 0 0 0 0 0 0 0 0 0 0 4 9 10 3
10 28 26 16 0 2 0 9 19 38 32 24 12 15 15 12 17 13 23 8 8 1 0 0 0 0 0 0 0 0 0 0 0 0 0 0 0 0 0 0 4 9 3
23 17 25 41 61 34 0 32 2 22 13 16 20 26 1 0 20 18 3 11 2 0 0 0 0 0 0 0 0 0 0 0 0 0 0 0 0 0 0 0 0 2 4

GFSMA_con_mucape_129.txt.gz
CAPE
38 0 0 0 0 0 0 0 0 0 0 0 0 0 0 0 0 0 0 0 0 0 1 1 0 0 0 0 0 0 0 0 1 2 0 0 0 0 0 0 0 0 3
76 17 0 0 0 0 0 0 0 0 0 0 0 0 0 0 0 0 0 0 0 0 4 1 2 3 5 4 0 0 0 2 14 3 0 1 4 7 0 1 5 0 0
98 80 0 0 0 0 0 0 0 0 0 0 0 0 0 0 0 0 0 0 0 0 10 31 51 66 58 65 49 21 4 1 1 0 11 14 6 1 0 4 14 7 0
52 91 31 0 0 0 0 0 0 0 0 0 0 0 0 0 0 0 0 0 0 0 0 27 112 133 126 118 129 123 137 125 69 55 37 16 3 0 0 0 2 0 0
142 195 46 0 0 0 0 0 0 0 0 0 0 0 0 0 0 0 0 0 0 0 0 0 0 0 18 55 94 93 88 60 107 110 120 127 112 105 68 35 3 2 0
144 220 84 29 0 0 0 0 0 0 0 0 0 0 0 0 0 0 0 0 0 0 0 0 0 0 0 0 3 62 94 102 68 49 55 84 25 42 72 98 111 86 30
91 187 156 50 0 0 0 0 0 0 0 0 0 0 0 0 0 0 0 0 0 0 0 0 0 0 0 0 3 6 35 65 83 73 3 12 28 55 54 41 64 46 72
119 158 188 62 0 0 0 0 0 0 0 0 1 15 8 0 0 0 0 0 0 0 0 0 0 0 0 0 1 3 6 19 9 4 17 17 29 46 68 66 42 61 69
126 154 203 79 0 0 0 0 0 0 0 0 27 13 0 0 0 0 0 0 0 0 0 0 0 0 0 0 0 1 8 2 0 2 47 44 45 63 68 42 36 52 38
81 87 150 70 8 0 0 0 0 0 0 14 44 35 2 3 5 0 0 0 0 0 0 0 0 0 0 0 0 0 0 0 0 1 2 10 56 77 50 39 31 7 0
116 28 26 48 26 0 0 54 15 17 0 20 61 68 30 25 11 0 0 0 0 0 0 0 0 0 0 0 0 0 0 0 0 0 2 3 16 53 54 35 9 1 0
82 21 17 57 87 42 11 86 66 65 32 47 64 94 63 21 30 1 0 0 0 0 0 0 0 0 0 0 0 0 0 0 0 0 2 4 11 33 51 17 4 0 0
60 44 13 25 50 81 30 139 94 76 31 95 117 131 93 70 14 27 0 0 0 0 0 0 0 0 0 0 0 0 0 0 0 0 6 22 15 21 16 3 0 0 1
54 15 33 30 57 95 124 168 116 106 46 86 144 162 119 110 99 14 0 17 13 0 0 0 0 0 0 0 0 0 0 0 0 0 0 3 9 13 6 4 0 0 0
14 7 32 83 88 137 154 193 158 185 83 160 216 237 149 181 67 44 30 61 12 0 0 0 0 0 0 0 0 0 0 0 0 0 0 0 1 2 5 3 1 6 0
29 21 42 63 101 104 177 212 226 153 158 254 315 313 234 172 131 84 74 65 7 0 0 0 0 0 0 0 0 0 0 0 0 0 0 0 0 3 4 13 15 7 4
32 64 64 68 67 160 207 246 234 194 267 348 376 330 205 167 121 117 86 42 5 4 0 2 0 0 0 0 0 0 0 0 0 0 0 0 0 0 2 3 2 3 0
58 75 97 103 154 161 222 235 204 293 346 381 409 296 155 175 179 135 69 8 15 8 0 0 0 0 0 0 0 0 0 0 0 0 0 0 0 0 0 0 0 0 0
56 93 101 137 180 194 191 206 311 330 320 344 345 231 154 179 191 128 35 18 5 5 0 0 0 0 0 0 0 0 0 0 0 0 0 0 0 0 0 0 0 0 0
82 102 110 118 152 160 181 217 244 218 186 169 167 135 119 167 189 98 80 56 21 13 8 0 0 0 0 0 0 0 0 0 0 0 0 0 0 0 0 0 0 0 0
91 119 139 116 107 126 136 139 116 114 101 96 75 67 92 117 107 88 77 29 13 9 6 0 0 0 0 0 0 0 0 0 0 0 0 0 0 0 0 0 0 0 0
47 67 78 63 63 70 58 60 51 52 66 57 66 58 76 76 79 53 30 10 12 14 0 0 0 0 0 0 0 0 0 0 0 0 0 0 0 0 0 0 0 0 0
14 5 21 30 37 18 50 57 59 70 52 42 53 49 68 58 14 3 39 13 2 0 0 0 0 5 0 0 0 0 0 0 0 0 0 0 0 0 0 0 0 0 1
8 16 9 33 9 14 24 23 11 26 20 6 42 11 30 24 32 41 5 5 0 0 0 0 4 10 2 0 0 0 0 0 0 0 0 0 0 0 0 0 0 0 7
0 1 6 7 7 14 4 10 0 1 9 8 11 6 12 16 2 0 0 0 0 0 1 5 2 0 0 0 0 0 0 0 0 0 0 0 0 0 0 0 0 0 4
0 0 0 0 0 2 7 2 0 0 15 0 0 0 0 0 0 0 0 0 0 0 0 10 2 0 0 0 0 0 0 0 0 0 0 0 0 0 0 0 0 0 4

GFSMA_con_mucape_132.txt.gz
CAPE
190 10 0 0 0 0 0 0 0 0 0 0 0 0 0 0 0 0 0 0 0 3 2 1 0 0 0 0 0 0 0 0 0 2 0 0 0 0 0 0 0 0 0
85 25 0 0 0 0 0 0 0 0 0 0 0 0 0 0 0 0 0 0 0 0 1 2 2 3 1 0 0 0 0 0 1 5 0 1 0 0 0 0 0 0 0
220 128 19 0 0 0 0 0 0 0 0 0 0 0 0 0 0 0 0 0 0 0 0 2 46 58 62 71 68 30 31 7 4 7 15 2 2 0 0 0 0 0 0
261 195 87 44 1 0 0 0 0 0 0 0 0 0 0 0 0 0 0 0 0 0 0 0 48 104 79 52 72 91 104 122 110 89 80 45 23 2 1 0 0 0 0
251 223 115 60 16 0 0 0 0 0 0 0 0 0 0 0 0 0 0 0 0 0 0 0 0 0 0 12 29 65 48 51 63 62 75 80 43 39 64 72 63 35 11
148 251 142 102 63 8 0 0 0 0 0 0 0 0 0 0 0 0 0 0 0 0 0 0 0 0 0 0 0 55 71 63 45 33 30 0 8 15 24 34 67 75 67
79 205 211 133 75 17 0 0 0 0 0 0 0 0 0 0 0 0 0 0 0 0 0 0 0 0 0 0 0 0 25 84 76 7 0 0 9 19 29 13 27 22 60
140 119 183 147 158 26 7 0 0 0 0 0 0 0 0 0 0 0 0 0 0 0 0 0 0 0 0 0 0 0 0 0 2 0 1 0 0 8 34 26 65 34 43
99 97 55 96 76 54 63 0 0 0 0 0 0 0 0 0 0 0 0 0 0 0 0 0 0 0 0 0 0 0 0 0 0 2 9 17 40 58 22 26 12 29 1
93 60 49 77 82 78 32 0 0 0 0 0 0 0 0 0 0 0 0 0 0 0 0 0 0 0 0 0 0 0 0 0 0 1 2 3 18 51 40 39 20 4 0
130 115 101 77 94 94 135 19 0 0 0 0 12 37 24 11 7 3 3 0 0 0 0 0 0 0 0 0 0 0 0 0 0 0 3 4 8 27 76 51 31 11 0
90 170 134 116 80 124 91 47 0 0 5 1 5 63 62 40 34 16 0 0 0 0 0 0 0 0 0 0 0 0 0 0 0 0 2 7 4 17 46 49 20 6 0
70 218 133 85 113 27 9 15 2 19 60 34 28 64 96 81 48 29 5 0 1 0 0 0 0 0 0 0 0 0 0 0 0 1 9 19 22 20 31 12 5 3 0
69 200 177 66 81 74 51 24 19 13 113 138 73 35 85 109 103 61 15 15 0 0 0 0 0 0 0 0 0 0 0 0 0 0 2 0 0 2 11 8 5 7 0
49 68 104 212 57 48 22 2 10 22 86 137 118 90 64 134 173 123 68 60 14 1 0 0 0 0 0 0 0 0 0 0 0 0 0 0 0 0 2 6 3 4 3
69 75 97 86 54 15 21 17 3 31 82 133 147 116 132 182 216 178 163 67 58 48 16 0 0 0 0 0 0 0 0 0 0 0 0 0 0 0 0 3 2 4 6
61 77 56 44 15 9 28 3 78 90 133 141 182 113 182 263 278 199 165 114 96 68 14 0 0 0 0 0 0 0 0 0 0 0 0 0 0 0 0 0 0 1 2
53 58 23 13 11 25 6 31 84 105 173 169 196 171 283 398 401 252 168 163 130 90 39 9 5 0 0 0 0 0 0 0 0 0 0 0 0 0 0 0 0 0 3
31 17 9 14 25 34 42 28 76 94 182 192 163 249 340 415 365 203 157 135 112 89 58 28 25 0 1 0 0 0 0 0 0 0 0 0 0 0 0 0 0 0 0
46 43 3 5 4 10 49 57 61 71 94 119 166 235 246 351 214 116 108 114 80 38 42 38 26 0 4 3 0 1 0 0 0 0 0 0 0 0 0 0 0 0 0
15 49 53 54 58 66 58 53 61 86 63 101 123 163 197 211 137 104 93 68 59 50 35 12 34 39 1 4 0 0 0 0 0 0 0 0 0 0 0 0 0 0 0
58 5 53 59 55 57 62 60 59 56 66 79 78 78 110 107 95 85 98 78 77 32 42 47 40 3 0 0 0 0 0 0 0 0 0 0 0 0 0 0 0 0 0
38 37 68 57 57 54 54 50 56 67 67 67 58 47 49 75 72 75 74 71 72 57 44 25 17 0 0 0 0 0 0 0 0 0 0 0 0 0 0 0 0 0 0
7 16 13 29 39 53 45 44 20 30 46 61 44 41 35 49 43 11 38 57 73 48 12 25 0 0 0 0 0 0 1 0 0 0 0 0 0 0 0 0 0 0 0
0 0 1 14 9 23 22 19 13 8 17 17 2 6 18 20 0 2 4 2 3 16 17 4 1 1 1 1 0 0 0 0 0 0 0 0 0 0 0 0 0 0 0
0 0 0 0 0 0 8 5 0 1 0 0 3 0 0 0 9 0 0 0 0 0 0 0 0 0 0 0 0 0 0 0 0 0 0 0 0 0 0 0 0 0 0

GFSMA_con_mucape_135.txt.gz
CAPE
166 67 34 6 3 0 0 0 0 0 0 0 0 0 0 0 0 0 0 0 0 7 2 1 0 0 0 0 0 0 0 0 0 0 0 0 0 0 0 0 0 0 0
134 63 9 2 0 0 0 0 0 0 0 0 0 0 0 0 0 0 0 0 0 0 5 5 6 4 2 1 0 0 0 0 0 0 0 0 0 0 0 0 0 0 0
129 97 18 0 0 0 0 0 0 0 0 0 0 0 0 0 0 0 0 0 0 0 0 7 17 46 47 68 72 63 33 17 4 6 1 0 0 0 0 0 0 0 0
115 176 37 8 0 0 0 0 0 0 0 0 0 0 0 0 0 0 0 0 0 0 0 0 0 22 63 40 43 40 23 87 100 63 63 42 9 4 4 2 0 0 1
100 356 26 55 10 0 0 0 0 0 0 0 0 0 0 0 0 0 0 0 0 0 0 0 0 0 0 0 0 0 0 21 22 38 51 64 14 3 0 1 3 53 49
118 437 106 87 53 14 0 0 0 0 0 0 0 0 0 0 0 0 0 0 0 0 0 0 0 0 0 0 0 8 27 23 10 24 19 0 0 0 0 0 0 0 7
140 298 174 89 99 48 12 3 0 0 0 0 0 0 0 0 0 0 0 0 0 0 0 0 0 0 0 0 0 0 3 57 49 2 0 0 0 0 0 0 1 0 7
149 208 315 102 103 90 63 20 9 0 0 0 0 0 0 0 0 0 0 0 0 0 0 0 0 0 0 0 0 0 0 0 2 1 1 0 2 2 0 2 0 0 0
171 140 157 70 89 78 76 26 16 12 1 0 0 0 0 0 0 0 5 6 0 0 0 0 0 0 0 0 0 0 0 0 0 2 2 10 15 17 12 6 8 5 0
162 154 82 95 63 106 78 44 21 13 0 0 0 0 0 0 18 0 12 15 0 0 0 0 0 0 0 0 0 0 0 0 0 1 2 6 11 17 22 21 37 10 1
237 133 117 75 70 53 65 67 54 0 14 0 0 0 0 0 0 0 0 4 8 0 0 0 0 0 0 0 0 0 0 0 0 0 1 3 7 24 27 42 49 14 7
202 235 129 84 94 28 13 52 68 21 2 0 0 0 3 0 0 3 14 18 8 2 19 8 0 0 0 0 0 0 0 0 0 0 0 12 18 15 12 28 38 3 2
156 159 270 120 66 30 35 64 80 34 28 1 0 19 54 31 19 38 37 13 9 22 32 12 0 0 0 0 0 0 0 0 0 0 0 3 0 3 16 23 9 4 3
151 153 257 189 191 124 79 70 56 80 29 5 16 51 48 54 40 56 54 47 27 17 36 3 0 0 0 0 0 0 0 0 0 0 0 0 0 0 1 10 3 3 3
178 137 215 203 131 90 41 46 53 65 9 8 17 7 64 59 67 101 133 111 112 39 35 29 0 0 0 0 0 0 0 0 0 0 0 0 0 0 0 0 0 0 3
230 211 112 143 74 150 333 76 35 56 50 33 11 14 43 74 121 132 156 157 203 129 67 48 28 17 0 0 0 0 0 0 0 0 0 0 0 0 0 0 0 0 1
243 187 153 113 88 49 54 68 8 95 51 18 26 9 54 108 111 108 117 212 266 199 114 51 46 9 0 0 0 1 0 0 0 0 0 0 0 0 0 0 0 0 1
191 171 166 116 120 67 11 148 58 74 33 13 25 2 62 107 136 116 128 187 277 197 119 65 47 22 14 5 0 2 7 0 0 0 0 0 0 0 0 0 0 0 0
194 176 161 116 56 46 25 13 27 26 25 5 4 53 108 123 147 174 159 207 250 179 113 66 65 44 26 9 12 16 13 2 0 0 0 0 0 0 0 0 0 0 0
142 114 132 83 48 35 3 14 30 34 46 14 71 94 142 110 121 151 93 134 148 93 80 69 63 57 24 5 7 21 7 1 2 0 0 0 0 0 0 0 0 0 0
125 94 76 66 63 33 15 17 15 74 27 13 47 33 75 77 56 77 80 93 100 68 57 74 69 46 3 21 0 9 3 2 0 0 0 0 0 0 0 0 0 0 0
15 76 13 10 55 28 3 5 39 56 24 6 14 0 37 50 57 74 72 85 74 67 51 52 45 55 0 0 10 14 2 0 0 0 0 0 0 0 0 0 0 0 0
37 30 20 33 14 14 4 12 32 18 65 48 20 20 75 69 64 57 64 58 62 48 58 64 73 46 38 37 5 12 0 2 0 0 0 0 0 0 0 0 0 0 0
2 0 0 1 26 4 2 1 5 15 7 19 41 47 43 46 43 25 49 56 26 49 56 30 29 29 36 2 4 0 0 0 0 0 0 0 0 0 0 0 0 0 0
0 2 8 13 0 4 0 0 0 0 0 0 0 0 0 0 0 0 2 1 0 0 7 3 3 3 4 2 1 0 0 0 0 0 0 0 0 0 0 0 0 0 0
0 0 0 0 0 0 0 0 0 4 0 0 3 13 13 1 20 10 0 1 0 0 0 0 0 0 0 0 0 0 0 0 0 0 0 0 0 0 0 0 0 0 0

GFSMA_con_mucape_138.txt.gz
CAPE
759 596 319 298 220 11 4 7 0 0 0 0 0 0 0 0 0 0 4 0 3 9 3 4 0 0 0 0 0 0 0 0 0 0 0 0 0 0 0 0 0 0 0
699 453 357 306 169 27 0 0 0 0 0 0 0 0 0 0 0 0 0 0 0 4 8 10 6 6 5 1 0 0 0 0 0 0 0 0 0 0 0 0 0 0 0
582 303 356 268 135 49 0 0 0 0 0 0 0 0 0 0 0 0 0 1 0 0 0 12 19 25 23 63 80 69 52 24 4 4 0 0 0 0 0 0 0 0 0
541 514 332 231 116 43 4 0 0 0 0 0 0 0 0 0 0 0 0 1 1 2 0 0 1 23 35 48 22 54 34 78 148 91 60 35 18 19 5 11 10 6 3
545 543 293 254 119 34 3 0 0 0 0 0 0 0 0 0 0 0 0 0 0 0 4 0 0 0 0 0 0 3 25 30 18 66 91 90 56 5 0 0 2 4 6
438 483 218 171 100 21 0 0 0 0 0 0 0 0 0 0 0 2 0 0 1 0 0 1 1 0 0 0 0 0 0 22 8 0 2 0 0 0 0 1 0 0 0
296 293 377 141 77 45 3 0 0 0 0 0 1 1 1 0 0 0 0 0 0 0 0 0 0 0 0 0 0 0 11 44 54 30 0 0 0 1 0 14 10 7 0
278 306 203 111 143 124 51 2 0 0 0 0 0 1 4 3 1 0 0 0 0 0 0 0 0 0 0 2 4 0 0 2 22 13 4 0 0 6 8 17 23 5 0
265 523 182 172 84 137 119 12 28 5 0 0 0 0 2 3 0 2 0 0 0 0 2 0 0 0 0 1 0 0 0 0 1 3 6 2 2 12 19 18 19 24 0
328 326 214 161 153 127 50 37 67 26 20 0 3 3 2 0 1 7 0 1 0 6 3 0 0 0 0 2 0 0 0 0 0 6 8 3 0 0 8 17 35 41 0
281 364 217 136 145 206 117 45 41 85 33 25 3 5 17 4 0 21 9 2 5 10 8 6 0 10 2 0 0 0 0 0 0 5 6 7 7 9 11 18 40 46 5
141 340 305 368 192 109 103 66 54 48 67 31 28 14 54 56 9 0 32 21 22 4 10 5 6 23 7 0 0 0 0 0 0 2 4 2 8 11 9 8 13 39 1
179 204 220 224 212 148 95 57 49 36 44 41 16 2 35 57 33 0 54 81 49 31 0 1 6 24 30 8 0 0 0 0 0 0 2 8 0 0 0 9 24 12 3
115 166 205 236 200 178 160 85 51 24 29 37 56 5 7 2 1 33 64 115 51 38 11 6 28 53 57 27 4 0 0 0 0 0 0 1 2 0 0 1 1 2 6
149 166 277 382 282 326 206 121 118 67 33 47 72 58 48 27 14 5 51 137 135 157 99 26 51 77 75 27 30 10 0 0 0 0 0 0 0 0 0 0 0 0 0
116 179 277 391 445 370 377 178 111 75 44 23 37 95 73 65 36 19 64 144 88 149 148 130 162 109 87 46 36 27 0 0 0 0 0 0 0 0 0 0 0 0 0
156 206 237 284 329 392 319 240 166 69 49 13 45 77 109 84 88 47 105 113 94 128 152 189 152 135 80 40 37 11 0 0 0 0 0 0 0 0 0 0 0 0 0
243 176 218 171 159 151 234 158 76 88 184 48 100 60 55 138 42 44 20 77 75 125 108 161 134 109 68 43 39 21 1 1 1 1 1 2 0 0 0 0 0 0 0
228 216 194 181 174 200 254 236 111 64 58 51 61 48 64 106 68 14 59 59 60 82 66 63 67 60 49 62 55 28 20 5 10 5 8 1 1 0 1 0 0 0 0
300 220 191 210 263 226 252 221 115 49 37 43 72 40 59 26 53 76 31 0 67 68 41 55 59 29 30 46 52 58 16 11 0 7 2 1 2 1 0 0 0 0 0
330 276 201 230 237 232 196 141 90 64 70 69 38 23 85 57 25 2 71 5 45 55 55 58 35 1 0 29 77 50 47 37 30 28 2 8 8 1 0 0 0 0 0
193 138 263 197 93 66 90 86 66 54 54 37 25 43 32 31 3 30 56 19 46 26 0 0 5 32 29 25 42 58 62 63 0 26 3 0 4 0 0 0 0 0 0
76 17 1 24 36 75 21 13 7 9 33 29 9 0 0 11 5 25 51 4 6 0 33 0 0 0 3 18 2 0 0 0 0 35 38 6 1 0 0 0 0 0 0
32 24 38 45 24 5 14 7 3 1 0 0 0 0 0 0 0 0 0 0 0 0 0 17 41 27 0 0 17 9 0 12 25 0 1 0 0 0 0 0 0 0 0
0 5 9 8 18 25 2 2 0 0 3 0 4 25 20 10 10 3 1 0 0 0 0 1 2 2 0 0 0 0 0 0 0 0 0 0 0 0 0 0 0 0 0
14 10 11 6 8 11 9 5 3 2 1 0 0 0 1 3 4 3 0 1 0 0 0 1 1 0 0 0 0 0 0 0 0 0 0 0 0 0 0 0 0 0 0

GFSMA_con_mucape_141.txt.gz
CAPE
817 734 702 451 246 169 5 0 1 0 1 0 0 0 0 0 0 0 6 0 0 9 4 3 1 0 0 0 0 0 0 0 0 0 0 0 0 0 0 0 0 0 0
974 1022 631 472 349 305 13 4 1 0 0 0 0 0 0 0 0 0 3 0 0 1 9 9 8 6 4 1 0 0 0 0 0 0 0 0 0 0 0 0 1 0 1
1044 783 669 488 425 157 7 2 1 0 0 0 0 0 0 0 0 0 0 0 0 0 1 47 40 19 16 29 81 84 81 45 20 7 7 10 1 0 5 8 11 6 11
908 675 640 397 423 93 36 0 0 0 0 0 0 0 0 0 0 0 0 0 3 0 0 12 42 90 106 95 90 69 81 80 141 157 92 75 46 38 34 28 21 28 46
716 693 667 639 384 183 42 4 0 0 0 0 0 0 0 0 0 0 0 0 0 0 2 1 0 0 0 0 0 2 35 43 29 6 58 109 102 62 1 0 1 1 12
599 701 660 620 496 367 105 30 0 0 0 0 0 0 0 1 2 2 1 0 0 0 0 2 0 0 0 0 0 0 2 2 0 0 0 0 0 0 0 1 4 2 20
612 707 565 552 416 214 93 23 0 0 0 0 0 1 0 0 0 0 3 1 0 0 0 5 0 0 0 0 0 0 0 6 7 2 0 0 0 0 0 1 2 1 0
501 442 549 374 270 235 123 14 0 0 0 0 0 3 3 0 0 0 0 0 0 0 0 0 0 0 0 0 0 0 1 6 70 19 12 3 1 4 8 4 10 5 0
522 515 568 374 288 224 284 114 1 0 0 0 0 0 1 0 0 0 0 0 0 0 0 0 0 0 0 1 0 0 0 0 2 29 11 6 7 14 24 30 26 13 7
364 408 318 297 250 219 184 234 50 1 0 0 0 0 0 10 0 13 1 0 0 0 0 0 0 0 0 0 0 0 0 0 0 3 6 8 8 10 17 19 21 26 25
33 466 315 299 285 376 175 219 85 9 21 11 5 22 1 19 50 40 35 0 0 0 14 17 2 0 0 0 0 0 0 0 0 4 7 9 10 10 9 6 20 48 49
15 237 350 277 259 167 384 289 147 83 40 33 33 4 19 37 0 0 16 41 0 0 7 0 0 0 3 6 9 4 0 0 0 2 10 9 8 9 7 15 15 10 59
83 134 203 194 191 248 175 211 225 163 102 55 39 22 7 25 23 12 1 22 21 11 0 3 4 4 28 21 47 44 8 4 0 0 6 10 7 1 0 0 2 9 45
33 112 142 243 183 147 183 199 158 200 245 140 92 39 21 25 32 6 1 0 7 0 2 4 13 34 28 39 51 72 47 11 12 0 0 4 11 0 0 0 4 8 7
0 14 142 124 165 236 181 147 122 186 150 130 144 65 50 37 41 32 28 15 13 5 0 16 4 44 30 43 67 78 72 39 35 0 0 0 0 0 0 0 0 1 2
0 6 21 131 133 295 333 220 212 224 312 179 111 88 83 75 81 91 101 82 63 31 3 9 14 5 70 94 89 77 76 44 40 23 0 0 0 0 0 0 0 0 0
2 30 40 62 109 173 354 351 262 200 226 171 147 126 73 100 85 84 97 124 142 91 35 25 44 55 45 99 99 67 61 56 38 37 5 2 5 0 0 0 0 0 0
132 93 46 51 129 177 270 338 347 240 217 271 148 106 169 140 44 104 84 109 115 138 95 64 44 67 74 73 60 68 47 43 47 32 8 9 5 7 0 3 0 0 0
271 225 217 167 236 260 167 183 295 283 227 212 230 139 88 366 118 110 52 56 124 98 54 43 29 56 14 6 56 56 42 43 47 49 28 30 8 14 13 3 1 0 0
335 279 287 245 211 157 169 131 176 205 260 135 146 136 88 84 118 29 58 13 42 55 74 16 56 13 6 0 24 19 9 22 42 48 47 28 9 8 13 1 0 2 0
294 331 322 419 305 219 163 204 228 227 271 194 130 116 82 79 44 75 44 47 52 48 15 11 11 1 0 0 0 0 3 33 21 27 33 24 5 13 4 17 6 1 0
186 218 393 271 216 192 209 176 206 261 244 207 126 84 87 84 43 12 13 36 78 45 9 0 0 0 0 0 18 0 0 0 0 0 0 3 41 23 0 11 16 13 14
29 68 135 82 106 112 140 122 106 131 117 83 23 18 2 23 32 29 25 11 9 2 4 2 1 1 0 0 4 0 0 0 0 0 0 0 6 5 8 20 19 11 6
40 62 34 81 75 74 72 50 19 20 47 56 35 2 5 3 5 3 2 2 8 4 1 0 1 1 0 6 13 0 3 8 0 0 2 0 0 0 1 1 7 4 6
0 2 0 4 0 0 3 10 16 15 15 12 4 3 3 0 1 0 2 4 11 7 4 2 1 0 0 0 1 0 3 1 0 0 0 0 0 0 0 0 1 1 1
0 5 30 7 3 6 13 2 0 0 0 0 0 3 2 0 0 0 0 0 0 0 1 2 1 2 0 3 0 0 0 0 0 0 0 0 0 0 0 2 0 0 0

GFSMA_con_mucape_144.txt.gz
CAPE
613 560 433 471 277 25 0 0 0 0 0 0 0 0 0 0 0 0 0 0 0 0 0 0 0 0 0 0 0 0 0 0 0 0 0 0 0 0 0 0 3 4 6
656 557 420 341 318 54 0 0 0 0 0 0 0 0 0 0 0 0 0 0 0 0 14 2 2 1 0 1 1 0 0 0 0 0 0 0 0 0 0 3 15 12 12
629 679 439 377 196 47 91 0 0 0 0 0 0 0 0 0 0 0 0 0 0 0 1 14 14 16 2 4 8 39 64 82 85 73 42 25 29 12 14 23 43 41 56
711 668 590 443 237 113 50 1 0 0 0 0 0 0 0 0 0 0 0 0 0 0 0 6 57 60 77 105 82 36 3 64 118 57 65 122 82 88 74 14 0 1 2
764 662 526 439 286 227 57 9 0 0 0 0 0 0 0 0 0 0 0 0 0 0 0 0 0 6 20 22 11 0 1 3 56 0 0 14 81 68 3 0 0 1 1
641 657 459 450 282 203 72 22 3 0 0 0 0 0 0 0 0 0 0 0 0 0 0 0 0 0 0 0 0 0 0 9 23 0 0 0 0 0 0 0 1 4 14
494 473 470 358 385 291 154 10 95 6 0 0 0 0 0 0 0 0 0 0 0 0 0 0 0 0 0 0 0 0 0 5 29 10 0 0 0 0 0 1 1 6 11
397 443 415 428 409 312 133 53 234 72 0 0 0 0 0 0 0 0 0 0 0 0 0 0 0 0 0 0 0 0 0 15 40 56 28 4 2 4 1 3 3 13 13
373 390 406 475 381 443 163 97 60 118 13 2 0 0 0 0 0 0 0 0 0 0 0 0 0 0 0 0 0 2 0 1 20 45 49 59 11 9 5 11 13 12 32
0 374 368 344 350 416 387 119 113 168 29 3 2 0 0 0 0 0 0 0 0 0 0 0 0 0 0 0 0 3 8 4 2 29 61 26 40 13 16 8 10 14 24
0 0 373 309 301 290 292 199 258 105 66 48 38 7 6 3 0 0 0 0 0 0 0 0 0 0 0 0 0 0 15 19 9 39 75 47 65 44 23 6 13 23 16
0 17 225 295 296 261 292 274 243 212 96 118 80 46 29 25 19 14 3 0 0 0 0 1 0 0 0 0 0 6 21 33 19 23 79 92 72 44 17 11 11 20 17
0 0 31 173 217 246 250 246 243 263 179 144 144 69 74 44 43 62 34 4 15 9 2 0 15 8 0 1 18 24 10 22 33 11 31 98 73 50 4 6 6 4 5
0 0 7 67 186 193 195 247 273 236 226 138 206 148 126 78 55 39 33 17 2 7 15 4 0 7 4 4 7 9 11 23 34 36 27 36 51 24 1 0 0 0 0
0 0 7 84 121 131 125 133 129 189 121 146 154 146 137 107 67 40 65 24 1 0 0 1 1 0 0 1 2 2 5 16 26 37 25 22 12 3 0 0 0 0 0
0 0 0 0 48 78 117 134 117 76 91 83 124 140 148 85 134 101 85 41 64 20 0 0 0 9 16 8 13 36 22 10 6 8 21 25 32 19 0 0 5 1 0
0 0 0 0 0 15 64 96 120 162 136 149 87 231 119 183 145 147 126 79 66 72 22 2 30 14 5 28 18 20 30 30 23 4 13 24 62 36 16 1 1 1 3
0 0 0 0 0 0 33 81 124 187 281 177 158 105 170 214 169 124 121 79 51 96 73 46 89 26 22 0 20 68 29 32 22 13 15 28 44 45 31 20 8 6 2
0 1 15 5 0 0 0 95 132 111 299 300 288 211 257 172 146 91 133 70 77 85 66 21 7 11 7 5 17 43 64 30 9 24 39 25 25 47 46 40 41 20 7
146 169 159 134 102 70 106 173 230 193 193 273 241 215 197 141 95 124 134 83 72 40 28 56 52 71 28 13 21 3 2 0 1 8 18 26 23 15 17 20 15 16 0
182 185 174 170 143 162 159 127 124 119 167 130 98 113 141 173 141 164 113 114 92 52 65 90 74 111 51 11 1 4 0 0 2 3 0 9 1 1 1 3 3 25 16
20 31 44 45 99 113 165 183 217 190 192 130 110 143 191 144 90 110 119 131 121 101 115 115 103 93 52 56 0 4 2 1 1 16 5 0 1 0 2 7 4 3 12
9 0 0 15 28 55 102 167 182 276 327 292 243 241 149 121 106 98 70 45 27 47 14 24 51 38 1 0 1 3 0 9 1 0 0 0 0 0 0 0 1 2 3
4 0 0 2 40 75 71 84 89 100 98 109 81 94 78 43 7 33 0 16 1 0 3 0 2 5 4 8 8 3 2 1 0 2 5 1 4 0 0 0 0 0 0
0 0 0 0 14 34 27 80 37 54 92 45 51 69 10 0 2 6 3 4 3 0 8 16 7 0 0 0 0 0 0 4 5 3 4 0 0 0 0 0 0 0 0
0 0 0 0 0 0 0 0 0 9 0 0 13 6 1 4 0 3 0 0 0 0 0 0 0 0 0 1 7 3 8 8 8 2 1 0 0 0 0 0 0 0 0